Wetterdaten: Montag, 30.10.2023
Datum Zeit Temp. Aussen Temp. o. S. Temp +5cm Feuchte Auss Luftdruck Regen Sonnenschein Regendauer Solar Windben Empfang
30.10.2023 00:00 12,8 C 12,2 C 8,3 C 84 % 1000,1 hPa 0,0 l/m 0 min 0 min 0 W/m 25,7 km/h (4 Bft) 100,00 %
30.10.2023 00:05 12,8 C 12,2 C 8,3 C 84 % 1000,0 hPa 0,0 l/m 0 min 0 min 0 W/m 29,0 km/h (5 Bft) 62,28 %
30.10.2023 00:10 12,8 C 11,7 C 8,3 C 84 % 1000,1 hPa 0,0 l/m 0 min 0 min 0 W/m 22,5 km/h (4 Bft) 100,00 %
30.10.2023 00:15 12,8 C 11,7 C 8,3 C 84 % 1000,2 hPa 0,0 l/m 0 min 0 min 0 W/m 29,0 km/h (5 Bft) 100,00 %
30.10.2023 00:20 12,7 C 11,7 C 8,3 C 84 % 1000,2 hPa 0,0 l/m 0 min 0 min 0 W/m 16,1 km/h (3 Bft) 100,00 %
30.10.2023 00:25 12,6 C 11,7 C 7,8 C 84 % 1000,1 hPa 0,0 l/m 0 min 0 min 0 W/m 12,9 km/h (3 Bft) 100,00 %
30.10.2023 00:48 12,2 C 11,1 C 7,8 C 86 % 1000,2 hPa 0,0 l/m 0 min 0 min 0 W/m 0,0 km/h (0 Bft) 100,00 %
30.10.2023 00:50 12,2 C 11,1 C 7,8 C 86 % 1000,2 hPa 0,0 l/m 0 min 0 min 0 W/m 3,2 km/h (1 Bft) 100,00 %
30.10.2023 00:52 12,2 C 11,1 C 7,8 C 86 % 1000,2 hPa 0,0 l/m 0 min 0 min 0 W/m 6,4 km/h (2 Bft) 97,87 %
30.10.2023 00:54 12,1 C 11,1 C 7,8 C 86 % 1000,2 hPa 0,0 l/m 0 min 0 min 0 W/m 3,2 km/h (1 Bft) 95,74 %
30.10.2023 00:56 12,1 C 11,1 C 7,8 C 86 % 1000,3 hPa 0,0 l/m 0 min 0 min 0 W/m 0,0 km/h (0 Bft) 95,65 %
30.10.2023 00:58 12,1 C 11,1 C 7,2 C 86 % 1000,3 hPa 0,0 l/m 0 min 0 min 0 W/m 0,0 km/h (0 Bft) 95,74 %
30.10.2023 01:00 12,0 C 11,1 C 7,2 C 87 % 1000,3 hPa 0,0 l/m 0 min 0 min 0 W/m 12,9 km/h (3 Bft) 95,74 %
30.10.2023 01:02 12,0 C 10,6 C 7,2 C 87 % 1000,3 hPa 0,0 l/m 0 min 0 min 0 W/m 3,2 km/h (1 Bft) 95,74 %
30.10.2023 01:04 11,9 C 10,6 C 7,2 C 87 % 1000,3 hPa 0,0 l/m 0 min 0 min 0 W/m 6,4 km/h (2 Bft) 93,88 %
30.10.2023 01:06 11,9 C 10,6 C 7,2 C 87 % 1000,3 hPa 0,0 l/m 0 min 0 min 0 W/m 6,4 km/h (2 Bft) 94,83 %
30.10.2023 01:08 11,9 C 10,6 C 7,2 C 87 % 1000,2 hPa 0,0 l/m 0 min 0 min 0 W/m 3,2 km/h (1 Bft) 94,44 %
30.10.2023 01:10 11,8 C 10,6 C 7,2 C 87 % 1000,3 hPa 0,0 l/m 0 min 0 min 0 W/m 6,4 km/h (2 Bft) 91,30 %
30.10.2023 01:12 11,8 C 10,6 C 7,2 C 87 % 1000,3 hPa 0,0 l/m 0 min 0 min 0 W/m 6,4 km/h (2 Bft) 95,74 %
30.10.2023 01:14 11,8 C 10,6 C 7,2 C 88 % 1000,3 hPa 0,0 l/m 0 min 0 min 0 W/m 12,9 km/h (3 Bft) 95,74 %
30.10.2023 01:16 11,8 C 10,6 C 7,2 C 88 % 1000,4 hPa 0,0 l/m 0 min 0 min 0 W/m 6,4 km/h (2 Bft) 97,87 %
30.10.2023 01:18 11,8 C 10,6 C 7,2 C 88 % 1000,4 hPa 0,0 l/m 0 min 0 min 0 W/m 3,2 km/h (1 Bft) 97,87 %
30.10.2023 01:20 11,7 C 10,6 C 7,2 C 88 % 1000,5 hPa 0,0 l/m 0 min 0 min 0 W/m 3,2 km/h (1 Bft) 97,87 %
30.10.2023 01:22 11,7 C 10,6 C 7,2 C 88 % 1000,5 hPa 0,0 l/m 0 min 0 min 0 W/m 12,9 km/h (3 Bft) 97,87 %
30.10.2023 01:24 11,7 C 10,6 C 7,2 C 88 % 1000,5 hPa 0,0 l/m 0 min 0 min 0 W/m 12,9 km/h (3 Bft) 95,65 %
30.10.2023 01:26 11,7 C 10,6 C 7,2 C 89 % 1000,4 hPa 0,0 l/m 0 min 0 min 0 W/m 6,4 km/h (2 Bft) 97,87 %
30.10.2023 01:28 11,7 C 10,6 C 7,2 C 89 % 1000,5 hPa 0,0 l/m 0 min 0 min 0 W/m 6,4 km/h (2 Bft) 95,74 %
30.10.2023 01:30 11,7 C 10,6 C 7,2 C 89 % 1000,6 hPa 0,0 l/m 0 min 0 min 0 W/m 6,4 km/h (2 Bft) 100,00 %
30.10.2023 01:32 11,6 C 10,6 C 7,2 C 89 % 1000,6 hPa 0,0 l/m 0 min 0 min 0 W/m 6,4 km/h (2 Bft) 100,00 %
30.10.2023 01:34 11,6 C 10,6 C 7,2 C 89 % 1000,5 hPa 0,0 l/m 0 min 0 min 0 W/m 3,2 km/h (1 Bft) 100,00 %
30.10.2023 01:36 11,6 C 10,6 C 7,2 C 89 % 1000,7 hPa 0,0 l/m 0 min 0 min 0 W/m 3,2 km/h (1 Bft) 100,00 %
30.10.2023 01:38 11,6 C 10,6 C 7,2 C 89 % 1000,6 hPa 0,0 l/m 0 min 0 min 0 W/m 3,2 km/h (1 Bft) 100,00 %
30.10.2023 01:40 11,6 C 10,6 C 7,2 C 89 % 1000,6 hPa 0,0 l/m 0 min 0 min 0 W/m 12,9 km/h (3 Bft) 100,00 %
30.10.2023 01:42 11,6 C 10,6 C 7,2 C 89 % 1000,7 hPa 0,0 l/m 0 min 0 min 0 W/m 6,4 km/h (2 Bft) 100,00 %
30.10.2023 01:44 11,6 C 10,6 C 7,2 C 89 % 1000,7 hPa 0,0 l/m 0 min 0 min 0 W/m 9,7 km/h (2 Bft) 97,87 %
30.10.2023 01:46 11,6 C 11,1 C 7,2 C 89 % 1000,8 hPa 0,0 l/m 0 min 0 min 0 W/m 6,4 km/h (2 Bft) 97,87 %
30.10.2023 01:48 11,6 C 11,1 C 7,2 C 89 % 1000,8 hPa 0,0 l/m 0 min 0 min 0 W/m 6,4 km/h (2 Bft) 100,00 %
30.10.2023 01:50 11,6 C 11,1 C 7,8 C 89 % 1000,7 hPa 0,0 l/m 0 min 0 min 0 W/m 12,9 km/h (3 Bft) 100,00 %
30.10.2023 01:52 11,7 C 11,1 C 7,8 C 89 % 1000,7 hPa 0,0 l/m 0 min 0 min 0 W/m 12,9 km/h (3 Bft) 100,00 %
30.10.2023 01:54 11,7 C 11,1 C 7,8 C 89 % 1000,7 hPa 0,0 l/m 0 min 0 min 0 W/m 9,7 km/h (2 Bft) 97,87 %
30.10.2023 01:56 11,7 C 11,1 C 7,8 C 89 % 1000,8 hPa 0,0 l/m 0 min 0 min 0 W/m 12,9 km/h (3 Bft) 100,00 %
30.10.2023 01:58 11,7 C 11,1 C 7,8 C 89 % 1000,8 hPa 0,0 l/m 0 min 0 min 0 W/m 6,4 km/h (2 Bft) 95,74 %
30.10.2023 02:00 11,7 C 11,1 C 7,8 C 89 % 1000,8 hPa 0,0 l/m 0 min 0 min 0 W/m 6,4 km/h (2 Bft) 100,00 %
30.10.2023 02:02 11,8 C 11,1 C 7,8 C 89 % 1000,9 hPa 0,0 l/m 0 min 0 min 0 W/m 12,9 km/h (3 Bft) 100,00 %
30.10.2023 02:04 11,8 C 11,1 C 7,8 C 89 % 1000,9 hPa 0,0 l/m 0 min 0 min 0 W/m 6,4 km/h (2 Bft) 100,00 %
30.10.2023 02:06 11,8 C 11,1 C 7,8 C 89 % 1001,0 hPa 0,0 l/m 0 min 0 min 0 W/m 16,1 km/h (3 Bft) 95,74 %
30.10.2023 02:08 11,8 C 11,1 C 7,8 C 89 % 1001,0 hPa 0,0 l/m 0 min 0 min 0 W/m 12,9 km/h (3 Bft) 100,00 %
30.10.2023 02:10 11,8 C 11,1 C 7,8 C 90 % 1001,0 hPa 0,0 l/m 0 min 0 min 0 W/m 6,4 km/h (2 Bft) 100,00 %
30.10.2023 02:12 11,8 C 11,1 C 7,8 C 89 % 1001,1 hPa 0,0 l/m 0 min 0 min 0 W/m 9,7 km/h (2 Bft) 100,00 %
30.10.2023 02:14 11,8 C 11,1 C 7,8 C 89 % 1001,1 hPa 0,0 l/m 0 min 0 min 0 W/m 6,4 km/h (2 Bft) 100,00 %
30.10.2023 02:16 11,9 C 11,1 C 7,8 C 90 % 1001,1 hPa 0,0 l/m 0 min 0 min 0 W/m 16,1 km/h (3 Bft) 100,00 %
30.10.2023 02:18 11,9 C 11,1 C 7,8 C 90 % 1001,1 hPa 0,0 l/m 0 min 0 min 0 W/m 6,4 km/h (2 Bft) 100,00 %
30.10.2023 02:20 11,9 C 11,1 C 7,8 C 90 % 1001,0 hPa 0,0 l/m 0 min 0 min 0 W/m 16,1 km/h (3 Bft) 100,00 %
30.10.2023 02:22 11,9 C 11,1 C 7,8 C 90 % 1001,0 hPa 0,0 l/m 0 min 0 min 0 W/m 6,4 km/h (2 Bft) 97,87 %
30.10.2023 02:24 11,9 C 11,1 C 7,8 C 90 % 1000,9 hPa 0,0 l/m 0 min 0 min 0 W/m 19,3 km/h (3 Bft) 100,00 %
30.10.2023 02:26 11,9 C 11,1 C 7,8 C 90 % 1000,9 hPa 0,0 l/m 0 min 0 min 0 W/m 16,1 km/h (3 Bft) 93,62 %
30.10.2023 02:28 11,9 C 11,1 C 7,8 C 90 % 1000,9 hPa 0,0 l/m 0 min 0 min 0 W/m 6,4 km/h (2 Bft) 100,00 %
30.10.2023 02:30 12,0 C 11,1 C 7,8 C 89 % 1000,9 hPa 0,0 l/m 0 min 0 min 0 W/m 22,5 km/h (4 Bft) 100,00 %
30.10.2023 02:32 12,0 C 11,1 C 7,8 C 89 % 1000,9 hPa 0,0 l/m 0 min 0 min 0 W/m 12,9 km/h (3 Bft) 95,74 %
30.10.2023 02:34 12,0 C 11,1 C 7,8 C 89 % 1000,8 hPa 0,0 l/m 0 min 0 min 0 W/m 19,3 km/h (3 Bft) 97,87 %
30.10.2023 02:36 12,0 C 11,7 C 7,8 C 89 % 1000,8 hPa 0,0 l/m 0 min 0 min 0 W/m 6,4 km/h (2 Bft) 95,65 %
30.10.2023 02:38 12,0 C 11,1 C 7,8 C 89 % 1000,9 hPa 0,0 l/m 0 min 0 min 0 W/m 6,4 km/h (2 Bft) 96,15 %
30.10.2023 02:40 12,1 C 11,7 C 7,8 C 89 % 1000,9 hPa 0,0 l/m 0 min 0 min 0 W/m 19,3 km/h (3 Bft) 93,48 %
30.10.2023 02:42 12,1 C 11,7 C 7,8 C 89 % 1000,9 hPa 0,0 l/m 0 min 0 min 0 W/m 12,9 km/h (3 Bft) 95,74 %
30.10.2023 02:44 12,1 C 11,1 C 7,8 C 89 % 1000,9 hPa 0,0 l/m 0 min 0 min 0 W/m 9,7 km/h (2 Bft) 97,87 %
30.10.2023 02:46 12,1 C 11,1 C 7,8 C 89 % 1000,9 hPa 0,0 l/m 0 min 0 min 0 W/m 9,7 km/h (2 Bft) 95,74 %
30.10.2023 02:48 12,1 C 11,1 C 7,8 C 89 % 1000,9 hPa 0,0 l/m 0 min 0 min 0 W/m 12,9 km/h (3 Bft) 95,74 %
30.10.2023 02:50 12,1 C 11,1 C 7,8 C 89 % 1000,9 hPa 0,0 l/m 0 min 0 min 0 W/m 12,9 km/h (3 Bft) 95,74 %
30.10.2023 02:52 12,1 C 11,1 C 7,8 C 89 % 1000,9 hPa 0,0 l/m 0 min 0 min 0 W/m 19,3 km/h (3 Bft) 69,57 %
30.10.2023 02:54 12,1 C 11,1 C 7,8 C 89 % 1001,0 hPa 0,0 l/m 0 min 0 min 0 W/m 22,5 km/h (4 Bft) 72,97 %
30.10.2023 02:56 12,1 C 11,7 C 7,8 C 89 % 1001,0 hPa 0,0 l/m 0 min 0 min 0 W/m 16,1 km/h (3 Bft) 93,62 %
30.10.2023 02:58 12,1 C 11,7 C 7,8 C 89 % 1001,0 hPa 0,0 l/m 0 min 0 min 0 W/m 16,1 km/h (3 Bft) 93,62 %
30.10.2023 03:00 12,1 C 11,7 C 7,8 C 89 % 1001,0 hPa 0,0 l/m 0 min 0 min 0 W/m 25,7 km/h (4 Bft) 93,62 %
30.10.2023 03:02 12,1 C 11,7 C 7,8 C 89 % 1001,0 hPa 0,0 l/m 0 min 0 min 0 W/m 6,4 km/h (2 Bft) 95,74 %
30.10.2023 03:04 12,1 C 11,7 C 7,8 C 89 % 1001,0 hPa 0,0 l/m 0 min 0 min 0 W/m 6,4 km/h (2 Bft) 93,88 %
30.10.2023 03:06 12,1 C 11,7 C 7,8 C 89 % 1001,0 hPa 0,0 l/m 0 min 0 min 0 W/m 16,1 km/h (3 Bft) 91,67 %
30.10.2023 03:08 12,1 C 11,7 C 7,8 C 89 % 1001,0 hPa 0,0 l/m 0 min 0 min 0 W/m 16,1 km/h (3 Bft) 97,14 %
30.10.2023 03:10 12,1 C 11,7 C 7,8 C 88 % 1001,0 hPa 0,0 l/m 0 min 0 min 0 W/m 19,3 km/h (3 Bft) 95,74 %
30.10.2023 03:12 12,1 C 11,7 C 7,8 C 88 % 1001,0 hPa 0,0 l/m 0 min 0 min 0 W/m 12,9 km/h (3 Bft) 100,00 %
30.10.2023 03:14 12,1 C 11,7 C 7,8 C 88 % 1001,0 hPa 0,0 l/m 0 min 0 min 0 W/m 19,3 km/h (3 Bft) 97,83 %
30.10.2023 03:16 12,2 C 11,7 C 7,8 C 88 % 1001,0 hPa 0,0 l/m 0 min 0 min 0 W/m 22,5 km/h (4 Bft) 97,87 %
30.10.2023 03:18 12,2 C 11,7 C 7,8 C 88 % 1001,0 hPa 0,0 l/m 0 min 0 min 0 W/m 9,7 km/h (2 Bft) 93,62 %
30.10.2023 03:20 12,2 C 11,7 C 7,8 C 88 % 1001,0 hPa 0,0 l/m 0 min 0 min 0 W/m 9,7 km/h (2 Bft) 95,74 %
30.10.2023 03:22 12,2 C 11,7 C 7,8 C 88 % 1000,9 hPa 0,0 l/m 0 min 0 min 0 W/m 12,9 km/h (3 Bft) 93,62 %
30.10.2023 03:24 12,2 C 11,1 C 7,8 C 88 % 1000,9 hPa 0,0 l/m 0 min 0 min 0 W/m 12,9 km/h (3 Bft) 95,74 %
30.10.2023 03:26 12,2 C 11,7 C 7,8 C 88 % 1001,0 hPa 0,0 l/m 0 min 0 min 0 W/m 19,3 km/h (3 Bft) 95,74 %
30.10.2023 03:28 12,2 C 11,7 C 7,8 C 88 % 1001,0 hPa 0,0 l/m 0 min 0 min 0 W/m 6,4 km/h (2 Bft) 97,83 %
30.10.2023 03:30 12,2 C 11,7 C 7,8 C 88 % 1001,0 hPa 0,0 l/m 0 min 0 min 0 W/m 6,4 km/h (2 Bft) 95,74 %
30.10.2023 03:32 12,2 C 11,7 C 7,8 C 88 % 1001,1 hPa 0,0 l/m 0 min 0 min 0 W/m 12,9 km/h (3 Bft) 95,74 %
30.10.2023 03:34 12,2 C 11,7 C 7,8 C 88 % 1001,1 hPa 0,0 l/m 0 min 0 min 0 W/m 12,9 km/h (3 Bft) 97,87 %
30.10.2023 03:36 12,2 C 11,7 C 7,8 C 88 % 1001,1 hPa 0,0 l/m 0 min 0 min 0 W/m 12,9 km/h (3 Bft) 97,87 %
30.10.2023 03:38 12,2 C 11,1 C 7,8 C 88 % 1001,1 hPa 0,0 l/m 0 min 0 min 0 W/m 12,9 km/h (3 Bft) 97,87 %
30.10.2023 03:40 12,2 C 11,1 C 7,8 C 88 % 1001,1 hPa 0,0 l/m 0 min 0 min 0 W/m 16,1 km/h (3 Bft) 95,74 %
30.10.2023 03:42 12,2 C 11,7 C 7,8 C 88 % 1001,0 hPa 0,0 l/m 0 min 0 min 0 W/m 19,3 km/h (3 Bft) 97,83 %
30.10.2023 03:44 12,2 C 11,7 C 7,8 C 88 % 1001,0 hPa 0,0 l/m 0 min 0 min 0 W/m 6,4 km/h (2 Bft) 97,87 %
30.10.2023 03:46 12,2 C 11,7 C 7,8 C 88 % 1001,1 hPa 0,0 l/m 0 min 0 min 0 W/m 9,7 km/h (2 Bft) 95,74 %
30.10.2023 03:48 12,1 C 11,1 C 7,8 C 88 % 1001,1 hPa 0,0 l/m 0 min 0 min 0 W/m 6,4 km/h (2 Bft) 97,87 %
30.10.2023 03:50 12,1 C 11,1 C 7,8 C 88 % 1001,0 hPa 0,0 l/m 0 min 0 min 0 W/m 9,7 km/h (2 Bft) 97,87 %
30.10.2023 03:52 12,1 C 11,1 C 7,8 C 88 % 1001,0 hPa 0,0 l/m 0 min 0 min 0 W/m 9,7 km/h (2 Bft) 95,74 %
30.10.2023 03:54 12,1 C 11,1 C 7,8 C 88 % 1001,0 hPa 0,0 l/m 0 min 0 min 0 W/m 9,7 km/h (2 Bft) 95,74 %
30.10.2023 03:56 12,1 C 11,1 C 7,8 C 88 % 1001,0 hPa 0,0 l/m 0 min 0 min 0 W/m 16,1 km/h (3 Bft) 97,87 %
30.10.2023 03:58 12,1 C 11,1 C 7,8 C 88 % 1001,0 hPa 0,0 l/m 0 min 0 min 0 W/m 6,4 km/h (2 Bft) 97,83 %
30.10.2023 04:00 12,1 C 11,1 C 7,8 C 88 % 1000,9 hPa 0,0 l/m 0 min 0 min 0 W/m 6,4 km/h (2 Bft) 97,87 %
30.10.2023 04:02 12,1 C 11,1 C 7,8 C 88 % 1001,0 hPa 0,0 l/m 0 min 0 min 0 W/m 3,2 km/h (1 Bft) 100,00 %
30.10.2023 04:04 12,1 C 11,1 C 7,8 C 88 % 1000,9 hPa 0,0 l/m 0 min 0 min 0 W/m 6,4 km/h (2 Bft) 100,00 %
30.10.2023 04:05 12,1 C 11,1 C 7,8 C 88 % 1000,9 hPa 0,0 l/m 0 min 0 min 0 W/m 6,4 km/h (2 Bft) 100,00 %
30.10.2023 04:12 12,0 C 11,1 C 7,8 C 88 % 1001,0 hPa 0,0 l/m 0 min 0 min 0 W/m 3,2 km/h (1 Bft) 90,91 %
30.10.2023 04:14 12,0 C 11,1 C 7,8 C 88 % 1000,9 hPa 0,0 l/m 0 min 0 min 0 W/m 6,4 km/h (2 Bft) 100,00 %
30.10.2023 04:16 12,0 C 11,1 C 7,8 C 88 % 1000,9 hPa 0,0 l/m 0 min 0 min 0 W/m 6,4 km/h (2 Bft) 93,62 %
30.10.2023 04:18 11,9 C 11,1 C 7,8 C 88 % 1000,9 hPa 0,0 l/m 0 min 0 min 0 W/m 6,4 km/h (2 Bft) 97,87 %
30.10.2023 04:20 11,9 C 11,1 C 7,8 C 88 % 1000,9 hPa 0,0 l/m 0 min 0 min 0 W/m 3,2 km/h (1 Bft) 100,00 %
30.10.2023 04:22 11,9 C 11,1 C 7,8 C 88 % 1000,9 hPa 0,0 l/m 0 min 0 min 0 W/m 3,2 km/h (1 Bft) 100,00 %
30.10.2023 04:24 11,9 C 10,6 C 7,2 C 88 % 1000,9 hPa 0,0 l/m 0 min 0 min 0 W/m 3,2 km/h (1 Bft) 97,87 %
30.10.2023 04:26 11,9 C 10,6 C 7,2 C 88 % 1000,9 hPa 0,0 l/m 0 min 0 min 0 W/m 3,2 km/h (1 Bft) 100,00 %
30.10.2023 04:28 11,9 C 10,6 C 7,2 C 88 % 1001,0 hPa 0,0 l/m 0 min 0 min 0 W/m 6,4 km/h (2 Bft) 95,74 %
30.10.2023 04:30 11,8 C 10,6 C 7,2 C 88 % 1000,9 hPa 0,0 l/m 0 min 0 min 0 W/m 3,2 km/h (1 Bft) 97,87 %
30.10.2023 04:32 11,8 C 10,6 C 7,2 C 88 % 1001,0 hPa 0,0 l/m 0 min 0 min 0 W/m 3,2 km/h (1 Bft) 97,87 %
30.10.2023 04:34 11,8 C 10,6 C 7,2 C 89 % 1001,0 hPa 0,0 l/m 0 min 0 min 0 W/m 6,4 km/h (2 Bft) 97,87 %
30.10.2023 04:36 11,8 C 10,6 C 7,2 C 89 % 1001,0 hPa 0,0 l/m 0 min 0 min 0 W/m 3,2 km/h (1 Bft) 97,87 %
30.10.2023 04:38 11,7 C 10,6 C 7,2 C 89 % 1001,0 hPa 0,0 l/m 0 min 0 min 0 W/m 3,2 km/h (1 Bft) 97,83 %
30.10.2023 04:40 11,7 C 10,6 C 7,2 C 89 % 1001,1 hPa 0,0 l/m 0 min 0 min 0 W/m 3,2 km/h (1 Bft) 97,87 %
30.10.2023 04:42 11,7 C 10,6 C 7,2 C 89 % 1001,0 hPa 0,0 l/m 0 min 0 min 0 W/m 3,2 km/h (1 Bft) 97,87 %
30.10.2023 04:44 11,6 C 10,6 C 7,2 C 89 % 1001,0 hPa 0,0 l/m 0 min 0 min 0 W/m 12,9 km/h (3 Bft) 97,87 %
30.10.2023 04:46 11,6 C 10,6 C 7,2 C 89 % 1001,1 hPa 0,0 l/m 0 min 0 min 0 W/m 3,2 km/h (1 Bft) 95,74 %
30.10.2023 04:48 11,6 C 10,6 C 7,2 C 89 % 1001,1 hPa 0,0 l/m 0 min 0 min 0 W/m 3,2 km/h (1 Bft) 97,87 %
30.10.2023 04:50 11,6 C 10,6 C 7,2 C 89 % 1001,0 hPa 0,0 l/m 0 min 0 min 0 W/m 3,2 km/h (1 Bft) 97,87 %
30.10.2023 04:52 11,6 C 10,6 C 7,2 C 89 % 1001,1 hPa 0,0 l/m 0 min 0 min 0 W/m 3,2 km/h (1 Bft) 97,83 %
30.10.2023 04:54 11,6 C 10,6 C 7,2 C 89 % 1001,1 hPa 0,0 l/m 0 min 0 min 0 W/m 3,2 km/h (1 Bft) 97,87 %
30.10.2023 04:56 11,5 C 10,6 C 7,2 C 90 % 1001,2 hPa 0,0 l/m 0 min 0 min 0 W/m 3,2 km/h (1 Bft) 97,87 %
30.10.2023 04:58 11,5 C 10,6 C 7,2 C 90 % 1001,2 hPa 0,0 l/m 0 min 0 min 0 W/m 6,4 km/h (2 Bft) 97,87 %
30.10.2023 05:00 11,4 C 10,6 C 7,2 C 90 % 1001,2 hPa 0,0 l/m 0 min 0 min 0 W/m 6,4 km/h (2 Bft) 97,87 %
30.10.2023 05:02 11,4 C 10,6 C 7,2 C 90 % 1001,3 hPa 0,0 l/m 0 min 0 min 0 W/m 0,0 km/h (0 Bft) 52,38 %
30.10.2023 05:04 11,4 C 10,6 C 7,2 C 90 % 1001,2 hPa 0,0 l/m 0 min 0 min 0 W/m 6,4 km/h (2 Bft) 100,00 %
30.10.2023 05:06 11,4 C 10,6 C 7,2 C 90 % 1001,3 hPa 0,0 l/m 0 min 0 min 0 W/m 6,4 km/h (2 Bft) 100,00 %
30.10.2023 05:08 11,4 C 10,6 C 7,2 C 90 % 1001,3 hPa 0,0 l/m 0 min 0 min 0 W/m 12,9 km/h (3 Bft) 100,00 %
30.10.2023 05:10 11,4 C 10,6 C 7,2 C 90 % 1001,3 hPa 0,0 l/m 0 min 0 min 0 W/m 6,4 km/h (2 Bft) 100,00 %
30.10.2023 05:12 11,3 C 10,6 C 7,2 C 90 % 1001,3 hPa 0,0 l/m 0 min 0 min 0 W/m 6,4 km/h (2 Bft) 95,74 %
30.10.2023 05:14 11,3 C 10,0 C 7,2 C 90 % 1001,3 hPa 0,0 l/m 0 min 0 min 0 W/m 6,4 km/h (2 Bft) 97,87 %
30.10.2023 05:16 11,3 C 10,0 C 7,2 C 90 % 1001,2 hPa 0,0 l/m 0 min 0 min 0 W/m 3,2 km/h (1 Bft) 100,00 %
30.10.2023 05:18 11,2 C 10,0 C 7,2 C 90 % 1001,2 hPa 0,0 l/m 0 min 0 min 0 W/m 12,9 km/h (3 Bft) 97,87 %
30.10.2023 05:20 11,2 C 10,0 C 7,2 C 90 % 1001,2 hPa 0,0 l/m 0 min 0 min 0 W/m 6,4 km/h (2 Bft) 97,87 %
30.10.2023 05:22 11,2 C 10,0 C 7,2 C 90 % 1001,2 hPa 0,0 l/m 0 min 0 min 0 W/m 6,4 km/h (2 Bft) 97,83 %
30.10.2023 05:24 11,2 C 10,0 C 7,2 C 90 % 1001,2 hPa 0,0 l/m 0 min 0 min 0 W/m 12,9 km/h (3 Bft) 100,00 %
30.10.2023 05:26 11,1 C 10,0 C 7,2 C 90 % 1001,2 hPa 0,0 l/m 0 min 0 min 0 W/m 3,2 km/h (1 Bft) 100,00 %
30.10.2023 05:28 11,1 C 10,0 C 7,2 C 90 % 1001,2 hPa 0,0 l/m 0 min 0 min 0 W/m 3,2 km/h (1 Bft) 100,00 %
30.10.2023 05:30 11,1 C 10,0 C 6,7 C 90 % 1001,2 hPa 0,0 l/m 0 min 0 min 0 W/m 3,2 km/h (1 Bft) 97,87 %
30.10.2023 05:32 11,1 C 10,0 C 6,7 C 91 % 1001,1 hPa 0,0 l/m 0 min 0 min 0 W/m 6,4 km/h (2 Bft) 97,87 %
30.10.2023 05:34 11,1 C 10,0 C 6,7 C 91 % 1001,1 hPa 0,0 l/m 0 min 0 min 0 W/m 3,2 km/h (1 Bft) 95,65 %
30.10.2023 05:36 11,1 C 10,0 C 6,7 C 91 % 1001,1 hPa 0,0 l/m 0 min 0 min 0 W/m 3,2 km/h (1 Bft) 93,62 %
30.10.2023 05:38 11,0 C 10,0 C 6,7 C 91 % 1001,2 hPa 0,0 l/m 0 min 0 min 0 W/m 6,4 km/h (2 Bft) 97,87 %
30.10.2023 05:40 11,0 C 10,0 C 6,7 C 91 % 1001,1 hPa 0,0 l/m 0 min 0 min 0 W/m 3,2 km/h (1 Bft) 97,87 %
30.10.2023 05:42 10,9 C 10,0 C 6,7 C 91 % 1001,2 hPa 0,0 l/m 0 min 0 min 0 W/m 6,4 km/h (2 Bft) 97,62 %
30.10.2023 05:44 10,9 C 10,0 C 6,7 C 91 % 1001,2 hPa 0,0 l/m 0 min 0 min 0 W/m 3,2 km/h (1 Bft) 98,00 %
30.10.2023 05:46 10,9 C 10,0 C 6,7 C 91 % 1001,2 hPa 0,0 l/m 0 min 0 min 0 W/m 3,2 km/h (1 Bft) 95,92 %
30.10.2023 05:48 10,9 C 10,0 C 6,7 C 91 % 1001,2 hPa 0,0 l/m 0 min 0 min 0 W/m 3,2 km/h (1 Bft) 95,65 %
30.10.2023 05:50 10,9 C 10,0 C 6,7 C 91 % 1001,1 hPa 0,0 l/m 0 min 0 min 0 W/m 6,4 km/h (2 Bft) 95,74 %
30.10.2023 05:52 10,9 C 10,0 C 6,7 C 91 % 1001,2 hPa 0,0 l/m 0 min 0 min 0 W/m 6,4 km/h (2 Bft) 93,62 %
30.10.2023 05:54 10,8 C 10,0 C 6,7 C 91 % 1001,2 hPa 0,0 l/m 0 min 0 min 0 W/m 6,4 km/h (2 Bft) 95,74 %
30.10.2023 05:56 10,8 C 10,0 C 6,7 C 91 % 1001,2 hPa 0,0 l/m 0 min 0 min 0 W/m 12,9 km/h (3 Bft) 95,74 %
30.10.2023 05:58 10,8 C 10,0 C 6,7 C 91 % 1001,2 hPa 0,0 l/m 0 min 0 min 0 W/m 6,4 km/h (2 Bft) 95,74 %
30.10.2023 06:00 10,8 C 10,0 C 6,7 C 91 % 1001,3 hPa 0,0 l/m 0 min 0 min 0 W/m 6,4 km/h (2 Bft) 95,74 %
30.10.2023 06:02 10,8 C 10,0 C 6,7 C 91 % 1001,3 hPa 0,0 l/m 0 min 0 min 0 W/m 6,4 km/h (2 Bft) 93,48 %
30.10.2023 06:04 10,7 C 10,0 C 6,7 C 91 % 1001,3 hPa 0,0 l/m 0 min 0 min 0 W/m 6,4 km/h (2 Bft) 91,67 %
30.10.2023 06:08 10,7 C 10,0 C 6,7 C 92 % 1001,3 hPa 0,0 l/m 0 min 0 min 0 W/m 6,4 km/h (2 Bft) 96,43 %
30.10.2023 06:10 10,7 C 10,0 C 6,7 C 92 % 1001,3 hPa 0,0 l/m 0 min 0 min 0 W/m 6,4 km/h (2 Bft) 93,62 %
30.10.2023 06:12 10,7 C 10,0 C 6,7 C 92 % 1001,3 hPa 0,0 l/m 0 min 0 min 0 W/m 3,2 km/h (1 Bft) 91,49 %
30.10.2023 06:14 10,7 C 10,0 C 6,7 C 92 % 1001,3 hPa 0,0 l/m 0 min 0 min 0 W/m 3,2 km/h (1 Bft) 95,74 %
30.10.2023 06:16 10,7 C 10,0 C 6,7 C 92 % 1001,3 hPa 0,0 l/m 0 min 0 min 0 W/m 3,2 km/h (1 Bft) 95,74 %
30.10.2023 06:18 10,7 C 10,0 C 6,7 C 92 % 1001,2 hPa 0,0 l/m 0 min 0 min 0 W/m 3,2 km/h (1 Bft) 95,65 %
30.10.2023 06:20 10,7 C 10,0 C 6,7 C 92 % 1001,2 hPa 0,0 l/m 0 min 0 min 0 W/m 3,2 km/h (1 Bft) 91,49 %
30.10.2023 06:22 10,7 C 10,0 C 6,7 C 92 % 1001,3 hPa 0,0 l/m 0 min 0 min 0 W/m 3,2 km/h (1 Bft) 93,62 %
30.10.2023 06:24 10,6 C 10,0 C 6,7 C 92 % 1001,3 hPa 0,0 l/m 0 min 0 min 0 W/m 6,4 km/h (2 Bft) 93,62 %
30.10.2023 06:26 10,6 C 10,0 C 6,7 C 92 % 1001,3 hPa 0,0 l/m 0 min 0 min 0 W/m 6,4 km/h (2 Bft) 95,74 %
30.10.2023 06:28 10,6 C 10,0 C 6,7 C 92 % 1001,3 hPa 0,0 l/m 0 min 0 min 0 W/m 6,4 km/h (2 Bft) 93,62 %
30.10.2023 06:30 10,6 C 10,0 C 6,7 C 92 % 1001,2 hPa 0,0 l/m 0 min 0 min 0 W/m 6,4 km/h (2 Bft) 91,30 %
30.10.2023 06:32 10,6 C 10,0 C 6,7 C 92 % 1001,1 hPa 0,0 l/m 0 min 0 min 0 W/m 6,4 km/h (2 Bft) 97,87 %
30.10.2023 06:34 10,6 C 10,0 C 6,7 C 92 % 1001,2 hPa 0,0 l/m 0 min 0 min 0 W/m 6,4 km/h (2 Bft) 97,87 %
30.10.2023 06:36 10,6 C 10,0 C 6,7 C 92 % 1001,2 hPa 0,0 l/m 0 min 0 min 0 W/m 3,2 km/h (1 Bft) 95,74 %
30.10.2023 06:38 10,7 C 10,0 C 6,7 C 92 % 1001,2 hPa 0,0 l/m 0 min 0 min 0 W/m 6,4 km/h (2 Bft) 95,74 %
30.10.2023 06:40 10,6 C 10,0 C 6,7 C 92 % 1001,1 hPa 0,0 l/m 0 min 0 min 0 W/m 6,4 km/h (2 Bft) 95,74 %
30.10.2023 06:42 10,6 C 10,0 C 6,7 C 92 % 1001,2 hPa 0,0 l/m 0 min 0 min 0 W/m 12,9 km/h (3 Bft) 97,87 %
30.10.2023 06:44 10,7 C 10,0 C 6,7 C 92 % 1001,2 hPa 0,0 l/m 0 min 0 min 0 W/m 6,4 km/h (2 Bft) 97,83 %
30.10.2023 06:46 10,7 C 10,0 C 6,7 C 92 % 1001,2 hPa 0,0 l/m 0 min 0 min 0 W/m 12,9 km/h (3 Bft) 93,62 %
30.10.2023 06:48 10,7 C 10,0 C 6,7 C 92 % 1001,2 hPa 0,0 l/m 0 min 0 min 0 W/m 16,1 km/h (3 Bft) 97,87 %
30.10.2023 06:50 10,7 C 10,0 C 6,7 C 92 % 1001,1 hPa 0,0 l/m 0 min 0 min 0 W/m 3,2 km/h (1 Bft) 100,00 %
30.10.2023 06:52 10,7 C 10,0 C 6,7 C 92 % 1001,2 hPa 0,0 l/m 0 min 0 min 0 W/m 12,9 km/h (3 Bft) 97,87 %
30.10.2023 06:54 10,7 C 10,0 C 6,7 C 92 % 1001,2 hPa 0,0 l/m 0 min 0 min 0 W/m 12,9 km/h (3 Bft) 100,00 %
30.10.2023 06:56 10,7 C 10,0 C 6,7 C 92 % 1001,2 hPa 0,0 l/m 0 min 0 min 0 W/m 6,4 km/h (2 Bft) 100,00 %
30.10.2023 06:58 10,7 C 10,0 C 6,7 C 92 % 1001,2 hPa 0,0 l/m 0 min 0 min 0 W/m 6,4 km/h (2 Bft) 97,87 %
30.10.2023 07:00 10,7 C 10,0 C 6,7 C 92 % 1001,2 hPa 0,0 l/m 0 min 0 min 0 W/m 6,4 km/h (2 Bft) 97,87 %
30.10.2023 07:02 10,7 C 10,0 C 6,7 C 92 % 1001,2 hPa 0,0 l/m 0 min 0 min 0 W/m 6,4 km/h (2 Bft) 100,00 %
30.10.2023 07:04 10,7 C 10,0 C 6,7 C 92 % 1001,2 hPa 0,0 l/m 0 min 0 min 0 W/m 6,4 km/h (2 Bft) 100,00 %
30.10.2023 07:06 10,7 C 10,0 C 6,7 C 92 % 1001,1 hPa 0,0 l/m 0 min 0 min 0 W/m 6,4 km/h (2 Bft) 100,00 %
30.10.2023 07:08 10,7 C 10,0 C 6,7 C 92 % 1001,0 hPa 0,0 l/m 0 min 0 min 0 W/m 3,2 km/h (1 Bft) 100,00 %
30.10.2023 07:10 10,7 C 10,0 C 6,7 C 92 % 1001,1 hPa 0,0 l/m 0 min 0 min 0 W/m 6,4 km/h (2 Bft) 100,00 %
30.10.2023 07:12 10,6 C 10,0 C 6,7 C 92 % 1001,2 hPa 0,0 l/m 0 min 0 min 0 W/m 6,4 km/h (2 Bft) 100,00 %
30.10.2023 07:14 10,6 C 10,0 C 6,7 C 92 % 1001,2 hPa 0,0 l/m 0 min 0 min 0 W/m 6,4 km/h (2 Bft) 100,00 %
30.10.2023 07:16 10,6 C 10,0 C 6,7 C 92 % 1001,1 hPa 0,0 l/m 0 min 0 min 0 W/m 3,2 km/h (1 Bft) 100,00 %
30.10.2023 07:18 10,6 C 10,0 C 6,7 C 92 % 1001,2 hPa 0,0 l/m 0 min 0 min 0 W/m 6,4 km/h (2 Bft) 100,00 %
30.10.2023 07:20 10,6 C 10,0 C 6,7 C 92 % 1001,2 hPa 0,0 l/m 0 min 0 min 0 W/m 6,4 km/h (2 Bft) 100,00 %
30.10.2023 07:22 10,6 C 10,0 C 6,7 C 92 % 1001,2 hPa 0,0 l/m 0 min 0 min 0 W/m 6,4 km/h (2 Bft) 97,83 %
30.10.2023 07:24 10,6 C 10,0 C 6,7 C 92 % 1001,2 hPa 0,0 l/m 0 min 0 min 0 W/m 6,4 km/h (2 Bft) 97,87 %
30.10.2023 07:26 10,6 C 10,0 C 6,7 C 92 % 1001,3 hPa 0,0 l/m 0 min 0 min 0 W/m 12,9 km/h (3 Bft) 100,00 %
30.10.2023 07:28 10,6 C 10,0 C 6,7 C 93 % 1001,3 hPa 0,0 l/m 0 min 0 min 0 W/m 3,2 km/h (1 Bft) 100,00 %
30.10.2023 07:30 10,6 C 9,4 C 6,7 C 93 % 1001,3 hPa 0,0 l/m 0 min 0 min 0 W/m 3,2 km/h (1 Bft) 100,00 %
30.10.2023 07:32 10,6 C 9,4 C 6,7 C 93 % 1001,4 hPa 0,0 l/m 0 min 0 min 0 W/m 6,4 km/h (2 Bft) 100,00 %
30.10.2023 07:34 10,6 C 10,0 C 6,7 C 93 % 1001,3 hPa 0,0 l/m 0 min 0 min 0 W/m 6,4 km/h (2 Bft) 100,00 %
30.10.2023 07:36 10,6 C 10,0 C 6,7 C 93 % 1001,3 hPa 0,0 l/m 0 min 0 min 0 W/m 12,9 km/h (3 Bft) 97,87 %
30.10.2023 07:38 10,6 C 10,0 C 6,7 C 93 % 1001,3 hPa 0,0 l/m 0 min 0 min 0 W/m 6,4 km/h (2 Bft) 100,00 %
30.10.2023 07:40 10,6 C 10,0 C 6,7 C 93 % 1001,3 hPa 0,0 l/m 0 min 0 min 2 W/m 12,9 km/h (3 Bft) 100,00 %
30.10.2023 07:42 10,6 C 10,0 C 6,7 C 93 % 1001,3 hPa 0,0 l/m 0 min 0 min 5 W/m 6,4 km/h (2 Bft) 100,00 %
30.10.2023 07:44 10,6 C 10,0 C 6,7 C 93 % 1001,2 hPa 0,0 l/m 0 min 0 min 5 W/m 12,9 km/h (3 Bft) 100,00 %
30.10.2023 07:46 10,6 C 10,0 C 6,7 C 93 % 1001,2 hPa 0,0 l/m 0 min 0 min 5 W/m 6,4 km/h (2 Bft) 100,00 %
30.10.2023 07:48 10,6 C 10,0 C 6,7 C 93 % 1001,2 hPa 0,0 l/m 0 min 0 min 5 W/m 6,4 km/h (2 Bft) 100,00 %
30.10.2023 07:50 10,6 C 9,4 C 6,7 C 93 % 1001,2 hPa 0,0 l/m 0 min 0 min 5 W/m 6,4 km/h (2 Bft) 100,00 %
30.10.2023 07:52 10,5 C 9,4 C 6,7 C 93 % 1001,2 hPa 0,0 l/m 0 min 0 min 6 W/m 3,2 km/h (1 Bft) 100,00 %
30.10.2023 07:54 10,5 C 9,4 C 6,7 C 93 % 1001,2 hPa 0,0 l/m 0 min 0 min 7 W/m 6,4 km/h (2 Bft) 97,73 %
30.10.2023 07:56 10,5 C 9,4 C 6,7 C 93 % 1001,2 hPa 0,0 l/m 0 min 0 min 7 W/m 6,4 km/h (2 Bft) 100,00 %
30.10.2023 07:58 10,5 C 9,4 C 6,7 C 93 % 1001,3 hPa 0,0 l/m 0 min 0 min 7 W/m 6,4 km/h (2 Bft) 100,00 %
30.10.2023 08:00 10,5 C 10,0 C 6,7 C 93 % 1001,3 hPa 0,0 l/m 0 min 0 min 7 W/m 6,4 km/h (2 Bft) 100,00 %
30.10.2023 08:02 10,5 C 10,0 C 6,7 C 93 % 1001,3 hPa 0,0 l/m 0 min 0 min 9 W/m 16,1 km/h (3 Bft) 100,00 %
30.10.2023 08:04 10,5 C 10,0 C 6,7 C 93 % 1001,3 hPa 0,0 l/m 0 min 0 min 9 W/m 12,9 km/h (3 Bft) 96,00 %
30.10.2023 08:06 10,5 C 10,0 C 6,7 C 93 % 1001,3 hPa 0,0 l/m 0 min 0 min 9 W/m 6,4 km/h (2 Bft) 97,87 %
30.10.2023 08:08 10,5 C 10,0 C 6,7 C 93 % 1001,4 hPa 0,0 l/m 0 min 0 min 11 W/m 12,9 km/h (3 Bft) 97,62 %
30.10.2023 08:10 10,5 C 10,0 C 6,7 C 93 % 1001,4 hPa 0,0 l/m 0 min 0 min 11 W/m 16,1 km/h (3 Bft) 97,87 %
30.10.2023 08:12 10,5 C 10,0 C 6,7 C 93 % 1001,4 hPa 0,0 l/m 0 min 0 min 11 W/m 3,2 km/h (1 Bft) 97,87 %
30.10.2023 08:14 10,5 C 10,0 C 6,7 C 93 % 1001,5 hPa 0,0 l/m 0 min 0 min 11 W/m 6,4 km/h (2 Bft) 95,74 %
30.10.2023 08:16 10,5 C 10,0 C 6,7 C 93 % 1001,4 hPa 0,0 l/m 0 min 0 min 12 W/m 6,4 km/h (2 Bft) 97,83 %
30.10.2023 08:18 10,5 C 10,0 C 6,7 C 93 % 1001,5 hPa 0,0 l/m 0 min 0 min 14 W/m 6,4 km/h (2 Bft) 95,74 %
30.10.2023 08:20 10,5 C 10,0 C 6,7 C 93 % 1001,6 hPa 0,0 l/m 0 min 0 min 16 W/m 6,4 km/h (2 Bft) 95,74 %
30.10.2023 08:22 10,5 C 10,0 C 6,7 C 93 % 1001,5 hPa 0,0 l/m 0 min 0 min 19 W/m 12,9 km/h (3 Bft) 93,62 %
30.10.2023 08:24 10,5 C 10,0 C 6,7 C 93 % 1001,5 hPa 0,0 l/m 0 min 0 min 19 W/m 3,2 km/h (1 Bft) 95,74 %
30.10.2023 08:26 10,6 C 10,0 C 6,7 C 93 % 1001,5 hPa 0,0 l/m 0 min 0 min 20 W/m 6,4 km/h (2 Bft) 95,74 %
30.10.2023 08:28 10,6 C 10,0 C 6,7 C 94 % 1001,4 hPa 0,0 l/m 0 min 0 min 23 W/m 12,9 km/h (3 Bft) 95,74 %
30.10.2023 08:30 10,6 C 10,0 C 6,7 C 94 % 1001,4 hPa 0,0 l/m 0 min 0 min 27 W/m 12,9 km/h (3 Bft) 95,65 %
30.10.2023 08:32 10,6 C 10,0 C 6,7 C 94 % 1001,4 hPa 0,0 l/m 0 min 0 min 31 W/m 3,2 km/h (1 Bft) 93,62 %
30.10.2023 08:34 10,6 C 10,0 C 6,7 C 94 % 1001,3 hPa 0,0 l/m 0 min 0 min 33 W/m 6,4 km/h (2 Bft) 93,62 %
30.10.2023 08:36 10,6 C 10,0 C 6,7 C 94 % 1001,3 hPa 0,0 l/m 0 min 0 min 36 W/m 6,4 km/h (2 Bft) 96,00 %
30.10.2023 08:38 10,6 C 10,0 C 6,7 C 94 % 1001,4 hPa 0,0 l/m 0 min 0 min 39 W/m 6,4 km/h (2 Bft) 97,96 %
30.10.2023 08:40 10,6 C 10,0 C 6,7 C 94 % 1001,4 hPa 0,0 l/m 0 min 0 min 37 W/m 6,4 km/h (2 Bft) 95,74 %
30.10.2023 08:42 10,6 C 10,0 C 6,7 C 94 % 1001,5 hPa 0,0 l/m 0 min 0 min 32 W/m 6,4 km/h (2 Bft) 95,65 %
30.10.2023 08:44 10,7 C 10,0 C 6,7 C 94 % 1001,4 hPa 0,0 l/m 0 min 0 min 29 W/m 6,4 km/h (2 Bft) 93,62 %
30.10.2023 08:46 10,7 C 10,0 C 6,7 C 94 % 1001,4 hPa 0,0 l/m 0 min 0 min 29 W/m 6,4 km/h (2 Bft) 93,62 %
30.10.2023 08:48 10,7 C 10,6 C 6,7 C 94 % 1001,4 hPa 0,0 l/m 0 min 0 min 32 W/m 6,4 km/h (2 Bft) 95,74 %
30.10.2023 08:50 10,7 C 10,6 C 7,2 C 94 % 1001,5 hPa 0,0 l/m 0 min 0 min 40 W/m 12,9 km/h (3 Bft) 93,62 %
30.10.2023 08:52 10,7 C 10,6 C 7,2 C 94 % 1001,5 hPa 0,0 l/m 0 min 0 min 50 W/m 3,2 km/h (1 Bft) 95,74 %
30.10.2023 08:54 10,8 C 10,6 C 7,2 C 94 % 1001,6 hPa 0,0 l/m 0 min 0 min 64 W/m 6,4 km/h (2 Bft) 95,65 %
30.10.2023 08:56 10,8 C 10,6 C 7,2 C 94 % 1001,6 hPa 0,0 l/m 0 min 0 min 70 W/m 6,4 km/h (2 Bft) 97,22 %
30.10.2023 08:58 10,8 C 10,6 C 7,2 C 94 % 1001,5 hPa 0,0 l/m 0 min 0 min 72 W/m 3,2 km/h (1 Bft) 94,83 %
30.10.2023 09:00 10,9 C 10,6 C 7,2 C 94 % 1001,5 hPa 0,0 l/m 0 min 0 min 69 W/m 12,9 km/h (3 Bft) 95,74 %
30.10.2023 09:02 10,9 C 11,1 C 7,2 C 94 % 1001,5 hPa 0,0 l/m 0 min 0 min 67 W/m 6,4 km/h (2 Bft) 95,74 %
30.10.2023 09:04 10,9 C 11,1 C 7,2 C 94 % 1001,5 hPa 0,0 l/m 0 min 0 min 75 W/m 12,9 km/h (3 Bft) 100,00 %
30.10.2023 09:06 11,0 C 11,1 C 7,8 C 94 % 1001,5 hPa 0,0 l/m 0 min 0 min 75 W/m 12,9 km/h (3 Bft) 96,55 %
30.10.2023 09:08 11,1 C 11,1 C 7,8 C 94 % 1001,5 hPa 0,0 l/m 0 min 0 min 81 W/m 6,4 km/h (2 Bft) 97,87 %
30.10.2023 09:10 11,1 C 11,1 C 7,8 C 94 % 1001,5 hPa 0,0 l/m 0 min 0 min 85 W/m 6,4 km/h (2 Bft) 97,22 %
30.10.2023 09:12 11,1 C 11,7 C 7,8 C 94 % 1001,5 hPa 0,0 l/m 0 min 0 min 89 W/m 6,4 km/h (2 Bft) 95,65 %
30.10.2023 09:14 11,2 C 11,7 C 7,8 C 94 % 1001,4 hPa 0,0 l/m 0 min 0 min 90 W/m 6,4 km/h (2 Bft) 97,87 %
30.10.2023 09:16 11,2 C 11,7 C 7,8 C 94 % 1001,5 hPa 0,0 l/m 0 min 0 min 96 W/m 6,4 km/h (2 Bft) 97,87 %
30.10.2023 09:18 11,3 C 11,7 C 7,8 C 94 % 1001,5 hPa 0,0 l/m 0 min 0 min 100 W/m 6,4 km/h (2 Bft) 97,87 %
30.10.2023 09:20 11,3 C 11,7 C 7,8 C 94 % 1001,5 hPa 0,0 l/m 0 min 0 min 98 W/m 3,2 km/h (1 Bft) 97,87 %
30.10.2023 09:22 11,4 C 11,7 C 7,8 C 94 % 1001,5 hPa 0,0 l/m 0 min 0 min 93 W/m 12,9 km/h (3 Bft) 95,74 %
30.10.2023 09:24 11,4 C 11,7 C 7,8 C 94 % 1001,5 hPa 0,0 l/m 0 min 0 min 88 W/m 6,4 km/h (2 Bft) 97,83 %
30.10.2023 09:26 11,5 C 11,7 C 7,8 C 94 % 1001,5 hPa 0,0 l/m 0 min 0 min 87 W/m 12,9 km/h (3 Bft) 97,87 %
30.10.2023 09:28 11,6 C 11,7 C 8,3 C 94 % 1001,6 hPa 0,0 l/m 0 min 0 min 90 W/m 6,4 km/h (2 Bft) 100,00 %
30.10.2023 09:30 11,6 C 11,7 C 8,3 C 94 % 1001,7 hPa 0,0 l/m 0 min 0 min 89 W/m 6,4 km/h (2 Bft) 97,87 %
30.10.2023 09:32 11,7 C 11,7 C 8,3 C 94 % 1001,6 hPa 0,0 l/m 0 min 0 min 93 W/m 6,4 km/h (2 Bft) 100,00 %
30.10.2023 09:34 11,7 C 12,2 C 8,3 C 94 % 1001,7 hPa 0,0 l/m 0 min 0 min 112 W/m 12,9 km/h (3 Bft) 97,87 %
30.10.2023 09:36 11,8 C 12,2 C 8,3 C 94 % 1001,7 hPa 0,0 l/m 0 min 0 min 117 W/m 6,4 km/h (2 Bft) 100,00 %
30.10.2023 09:38 11,8 C 12,2 C 8,3 C 94 % 1001,6 hPa 0,0 l/m 0 min 0 min 116 W/m 6,4 km/h (2 Bft) 100,00 %
30.10.2023 09:40 11,9 C 12,2 C 8,3 C 94 % 1001,7 hPa 0,0 l/m 0 min 0 min 115 W/m 6,4 km/h (2 Bft) 97,87 %
30.10.2023 09:42 11,9 C 12,2 C 8,3 C 94 % 1001,7 hPa 0,0 l/m 0 min 0 min 109 W/m 12,9 km/h (3 Bft) 100,00 %
30.10.2023 09:44 12,0 C 12,2 C 8,3 C 94 % 1001,6 hPa 0,0 l/m 0 min 0 min 101 W/m 12,9 km/h (3 Bft) 100,00 %
30.10.2023 09:50 12,1 C 12,2 C 8,3 C 93 % 1001,7 hPa 0,0 l/m 0 min 0 min 100 W/m 3,2 km/h (1 Bft) 100,00 %
30.10.2023 09:52 12,2 C 12,2 C 8,3 C 93 % 1001,7 hPa 0,0 l/m 0 min 0 min 105 W/m 12,9 km/h (3 Bft) 98,08 %
30.10.2023 09:54 12,2 C 12,2 C 8,9 C 93 % 1001,7 hPa 0,0 l/m 0 min 0 min 112 W/m 12,9 km/h (3 Bft) 100,00 %
30.10.2023 09:56 12,3 C 12,2 C 8,9 C 93 % 1001,8 hPa 0,0 l/m 0 min 0 min 112 W/m 6,4 km/h (2 Bft) 100,00 %
30.10.2023 09:58 12,3 C 12,2 C 8,9 C 93 % 1001,7 hPa 0,0 l/m 0 min 0 min 117 W/m 12,9 km/h (3 Bft) 97,83 %
30.10.2023 10:00 12,3 C 12,2 C 8,9 C 93 % 1001,7 hPa 0,0 l/m 0 min 0 min 116 W/m 16,1 km/h (3 Bft) 100,00 %
30.10.2023 10:02 12,4 C 12,2 C 8,9 C 93 % 1001,7 hPa 0,0 l/m 0 min 0 min 120 W/m 12,9 km/h (3 Bft) 97,87 %
30.10.2023 10:04 12,4 C 12,8 C 8,9 C 92 % 1001,7 hPa 0,0 l/m 0 min 0 min 123 W/m 12,9 km/h (3 Bft) 98,00 %
30.10.2023 10:06 12,5 C 12,8 C 8,9 C 92 % 1001,7 hPa 0,0 l/m 0 min 0 min 119 W/m 12,9 km/h (3 Bft) 97,87 %
30.10.2023 10:08 12,5 C 12,8 C 8,9 C 92 % 1001,8 hPa 0,0 l/m 0 min 0 min 116 W/m 6,4 km/h (2 Bft) 97,87 %
30.10.2023 10:10 12,6 C 12,8 C 8,9 C 92 % 1001,7 hPa 0,0 l/m 0 min 0 min 114 W/m 16,1 km/h (3 Bft) 97,87 %
30.10.2023 10:12 12,6 C 12,8 C 8,9 C 92 % 1001,8 hPa 0,0 l/m 0 min 0 min 114 W/m 12,9 km/h (3 Bft) 97,83 %
30.10.2023 10:14 12,6 C 12,8 C 8,9 C 92 % 1001,7 hPa 0,0 l/m 0 min 0 min 112 W/m 6,4 km/h (2 Bft) 97,87 %
30.10.2023 10:16 12,7 C 12,8 C 8,9 C 92 % 1001,7 hPa 0,0 l/m 0 min 0 min 111 W/m 12,9 km/h (3 Bft) 97,87 %
30.10.2023 10:18 12,7 C 12,8 C 8,9 C 92 % 1001,7 hPa 0,0 l/m 0 min 0 min 114 W/m 6,4 km/h (2 Bft) 95,74 %
30.10.2023 10:20 12,7 C 12,8 C 8,9 C 91 % 1001,8 hPa 0,0 l/m 0 min 0 min 117 W/m 6,4 km/h (2 Bft) 97,87 %
30.10.2023 10:22 12,8 C 12,8 C 8,9 C 91 % 1001,8 hPa 0,0 l/m 0 min 0 min 120 W/m 6,4 km/h (2 Bft) 95,74 %
30.10.2023 10:24 12,8 C 12,8 C 8,9 C 91 % 1001,8 hPa 0,0 l/m 0 min 0 min 120 W/m 12,9 km/h (3 Bft) 95,74 %
30.10.2023 10:26 12,8 C 12,8 C 8,9 C 91 % 1001,8 hPa 0,0 l/m 0 min 0 min 121 W/m 12,9 km/h (3 Bft) 95,74 %
30.10.2023 10:28 12,8 C 12,8 C 8,9 C 91 % 1001,8 hPa 0,0 l/m 0 min 0 min 124 W/m 6,4 km/h (2 Bft) 97,83 %
30.10.2023 10:30 12,9 C 12,8 C 8,9 C 91 % 1001,8 hPa 0,0 l/m 0 min 0 min 127 W/m 12,9 km/h (3 Bft) 97,87 %
30.10.2023 10:32 12,9 C 12,8 C 8,9 C 91 % 1001,8 hPa 0,0 l/m 0 min 0 min 125 W/m 6,4 km/h (2 Bft) 97,87 %
30.10.2023 10:34 12,9 C 12,8 C 8,9 C 91 % 1001,7 hPa 0,0 l/m 0 min 0 min 126 W/m 3,2 km/h (1 Bft) 97,87 %
30.10.2023 10:36 12,9 C 12,8 C 8,9 C 91 % 1001,7 hPa 0,0 l/m 0 min 0 min 128 W/m 3,2 km/h (1 Bft) 97,87 %
30.10.2023 10:38 12,9 C 12,8 C 9,4 C 91 % 1001,7 hPa 0,0 l/m 0 min 0 min 129 W/m 12,9 km/h (3 Bft) 97,87 %
30.10.2023 10:40 13,0 C 12,8 C 9,4 C 91 % 1001,7 hPa 0,0 l/m 0 min 0 min 120 W/m 6,4 km/h (2 Bft) 100,00 %
30.10.2023 10:42 13,0 C 12,8 C 9,4 C 91 % 1001,6 hPa 0,0 l/m 0 min 0 min 114 W/m 6,4 km/h (2 Bft) 100,00 %
30.10.2023 10:44 13,0 C 12,8 C 9,4 C 91 % 1001,6 hPa 0,0 l/m 0 min 0 min 115 W/m 6,4 km/h (2 Bft) 100,00 %
30.10.2023 10:46 13,1 C 12,8 C 9,4 C 91 % 1001,5 hPa 0,0 l/m 0 min 0 min 126 W/m 12,9 km/h (3 Bft) 100,00 %
30.10.2023 10:48 13,1 C 13,3 C 9,4 C 91 % 1001,6 hPa 0,0 l/m 0 min 0 min 142 W/m 6,4 km/h (2 Bft) 100,00 %
30.10.2023 10:50 13,1 C 13,3 C 9,4 C 91 % 1001,5 hPa 0,0 l/m 0 min 0 min 150 W/m 3,2 km/h (1 Bft) 97,87 %
30.10.2023 10:52 13,1 C 13,3 C 9,4 C 91 % 1001,6 hPa 0,0 l/m 0 min 0 min 150 W/m 6,4 km/h (2 Bft) 97,87 %
30.10.2023 10:54 13,2 C 13,3 C 9,4 C 91 % 1001,5 hPa 0,0 l/m 0 min 0 min 150 W/m 12,9 km/h (3 Bft) 100,00 %
30.10.2023 10:56 13,2 C 13,3 C 9,4 C 90 % 1001,5 hPa 0,0 l/m 0 min 0 min 152 W/m 3,2 km/h (1 Bft) 100,00 %
30.10.2023 10:58 13,2 C 13,3 C 9,4 C 91 % 1001,6 hPa 0,0 l/m 0 min 0 min 153 W/m 6,4 km/h (2 Bft) 97,87 %
30.10.2023 11:00 13,3 C 13,3 C 9,4 C 91 % 1001,6 hPa 0,0 l/m 0 min 0 min 151 W/m 6,4 km/h (2 Bft) 97,87 %
30.10.2023 11:02 13,3 C 13,3 C 9,4 C 90 % 1001,6 hPa 0,0 l/m 0 min 0 min 147 W/m 3,2 km/h (1 Bft) 97,87 %
30.10.2023 11:04 13,3 C 13,3 C 9,4 C 90 % 1001,5 hPa 0,0 l/m 0 min 0 min 142 W/m 6,4 km/h (2 Bft) 100,00 %
30.10.2023 11:06 13,3 C 13,3 C 9,4 C 90 % 1001,5 hPa 0,0 l/m 0 min 0 min 139 W/m 6,4 km/h (2 Bft) 97,87 %
30.10.2023 11:08 13,4 C 13,3 C 9,4 C 90 % 1001,4 hPa 0,0 l/m 0 min 0 min 141 W/m 6,4 km/h (2 Bft) 97,87 %
30.10.2023 11:10 13,4 C 13,3 C 9,4 C 90 % 1001,4 hPa 0,0 l/m 0 min 0 min 141 W/m 6,4 km/h (2 Bft) 95,74 %
30.10.2023 11:12 13,4 C 13,3 C 9,4 C 90 % 1001,3 hPa 0,0 l/m 0 min 0 min 139 W/m 12,9 km/h (3 Bft) 95,65 %
30.10.2023 11:14 13,5 C 13,3 C 9,4 C 90 % 1001,4 hPa 0,0 l/m 0 min 0 min 145 W/m 3,2 km/h (1 Bft) 97,87 %
30.10.2023 11:16 13,5 C 13,9 C 9,4 C 90 % 1001,4 hPa 0,0 l/m 0 min 0 min 155 W/m 6,4 km/h (2 Bft) 97,87 %
30.10.2023 11:18 13,6 C 13,9 C 9,4 C 90 % 1001,5 hPa 0,0 l/m 0 min 0 min 163 W/m 6,4 km/h (2 Bft) 95,74 %
30.10.2023 11:20 13,6 C 13,9 C 10,0 C 89 % 1001,4 hPa 0,0 l/m 0 min 0 min 166 W/m 9,7 km/h (2 Bft) 93,62 %
30.10.2023 11:22 13,6 C 13,9 C 10,0 C 89 % 1001,4 hPa 0,0 l/m 0 min 0 min 166 W/m 6,4 km/h (2 Bft) 95,74 %
30.10.2023 11:24 13,7 C 13,9 C 10,0 C 89 % 1001,4 hPa 0,0 l/m 0 min 0 min 165 W/m 6,4 km/h (2 Bft) 95,65 %
30.10.2023 11:26 13,7 C 13,9 C 10,0 C 89 % 1001,4 hPa 0,0 l/m 0 min 0 min 166 W/m 6,4 km/h (2 Bft) 93,62 %
30.10.2023 11:28 13,7 C 13,9 C 10,0 C 89 % 1001,4 hPa 0,0 l/m 0 min 0 min 163 W/m 12,9 km/h (3 Bft) 95,74 %
30.10.2023 11:30 13,8 C 13,9 C 10,0 C 89 % 1001,4 hPa 0,0 l/m 0 min 0 min 165 W/m 3,2 km/h (1 Bft) 95,74 %
30.10.2023 11:32 13,8 C 13,9 C 10,0 C 89 % 1001,4 hPa 0,0 l/m 0 min 0 min 174 W/m 12,9 km/h (3 Bft) 95,74 %
30.10.2023 11:34 13,8 C 13,9 C 10,0 C 88 % 1001,4 hPa 0,0 l/m 0 min 0 min 178 W/m 6,4 km/h (2 Bft) 91,49 %
30.10.2023 11:36 13,9 C 14,4 C 10,0 C 88 % 1001,4 hPa 0,0 l/m 0 min 0 min 185 W/m 6,4 km/h (2 Bft) 91,49 %
30.10.2023 11:38 13,9 C 14,4 C 10,0 C 88 % 1001,4 hPa 0,0 l/m 0 min 0 min 194 W/m 6,4 km/h (2 Bft) 95,65 %
30.10.2023 11:40 13,9 C 14,4 C 10,0 C 87 % 1001,4 hPa 0,0 l/m 0 min 0 min 194 W/m 6,4 km/h (2 Bft) 95,74 %
30.10.2023 11:42 14,0 C 14,4 C 10,6 C 87 % 1001,4 hPa 0,0 l/m 0 min 0 min 197 W/m 12,9 km/h (3 Bft) 93,62 %
30.10.2023 11:44 14,1 C 14,4 C 10,6 C 87 % 1001,4 hPa 0,0 l/m 0 min 0 min 204 W/m 12,9 km/h (3 Bft) 95,74 %
30.10.2023 11:46 14,1 C 14,4 C 10,6 C 86 % 1001,2 hPa 0,0 l/m 0 min 0 min 207 W/m 6,4 km/h (2 Bft) 95,74 %
30.10.2023 11:48 14,2 C 14,4 C 10,6 C 86 % 1001,2 hPa 0,0 l/m 2 min 0 min 218 W/m 12,9 km/h (3 Bft) 95,74 %
30.10.2023 11:50 14,3 C 14,4 C 10,6 C 86 % 1001,1 hPa 0,0 l/m 2 min 0 min 234 W/m 12,9 km/h (3 Bft) 95,65 %
30.10.2023 11:52 14,3 C 15,0 C 10,6 C 86 % 1001,0 hPa 0,0 l/m 2 min 0 min 245 W/m 6,4 km/h (2 Bft) 91,49 %
30.10.2023 11:54 14,3 C 15,0 C 10,6 C 86 % 1001,0 hPa 0,0 l/m 2 min 0 min 254 W/m 9,7 km/h (2 Bft) 91,49 %
30.10.2023 11:56 14,3 C 15,6 C 10,6 C 86 % 1000,9 hPa 0,0 l/m 2 min 0 min 263 W/m 6,4 km/h (2 Bft) 93,62 %
30.10.2023 11:58 14,4 C 15,6 C 11,1 C 86 % 1000,9 hPa 0,0 l/m 2 min 0 min 252 W/m 0,0 km/h (0 Bft) 97,87 %
30.10.2023 12:00 14,6 C 15,6 C 11,1 C 86 % 1000,8 hPa 0,0 l/m 2 min 0 min 237 W/m 6,4 km/h (2 Bft) 93,62 %
30.10.2023 12:02 14,6 C 15,6 C 11,1 C 85 % 1001,0 hPa 0,0 l/m 2 min 0 min 213 W/m 16,1 km/h (3 Bft) 95,74 %
30.10.2023 12:04 14,7 C 15,0 C 11,1 C 85 % 1000,9 hPa 0,0 l/m 0 min 0 min 176 W/m 6,4 km/h (2 Bft) 97,83 %
30.10.2023 12:08 14,7 C 14,4 C 10,6 C 84 % 1000,9 hPa 0,0 l/m 0 min 0 min 131 W/m 12,9 km/h (3 Bft) 100,00 %
30.10.2023 12:10 14,7 C 14,4 C 10,6 C 84 % 1000,8 hPa 0,0 l/m 0 min 0 min 113 W/m 12,9 km/h (3 Bft) 97,87 %
30.10.2023 12:12 14,7 C 14,4 C 10,6 C 84 % 1000,8 hPa 0,0 l/m 0 min 0 min 106 W/m 9,7 km/h (2 Bft) 95,74 %
30.10.2023 12:14 14,7 C 14,4 C 10,6 C 84 % 1000,7 hPa 0,0 l/m 0 min 0 min 101 W/m 6,4 km/h (2 Bft) 95,74 %
30.10.2023 12:16 14,7 C 14,4 C 10,6 C 84 % 1000,6 hPa 0,0 l/m 0 min 0 min 110 W/m 12,9 km/h (3 Bft) 97,83 %
30.10.2023 12:18 14,7 C 14,4 C 10,6 C 84 % 1000,6 hPa 0,0 l/m 0 min 0 min 121 W/m 6,4 km/h (2 Bft) 95,74 %
30.10.2023 12:20 14,7 C 14,4 C 10,6 C 83 % 1000,5 hPa 0,0 l/m 0 min 0 min 122 W/m 6,4 km/h (2 Bft) 97,87 %
30.10.2023 12:22 14,7 C 14,4 C 10,6 C 83 % 1000,5 hPa 0,0 l/m 0 min 0 min 122 W/m 6,4 km/h (2 Bft) 97,87 %
30.10.2023 12:24 14,7 C 14,4 C 10,6 C 84 % 1000,5 hPa 0,0 l/m 0 min 0 min 130 W/m 6,4 km/h (2 Bft) 97,87 %
30.10.2023 12:26 14,7 C 14,4 C 10,6 C 84 % 1000,4 hPa 0,0 l/m 0 min 0 min 136 W/m 6,4 km/h (2 Bft) 97,87 %
30.10.2023 12:28 14,7 C 14,4 C 10,6 C 84 % 1000,4 hPa 0,0 l/m 0 min 0 min 124 W/m 6,4 km/h (2 Bft) 97,87 %
30.10.2023 12:30 14,7 C 13,9 C 10,6 C 84 % 1000,5 hPa 0,0 l/m 0 min 0 min 101 W/m 12,9 km/h (3 Bft) 97,83 %
30.10.2023 12:32 14,7 C 13,9 C 10,6 C 84 % 1000,5 hPa 0,0 l/m 0 min 0 min 93 W/m 12,9 km/h (3 Bft) 97,87 %
30.10.2023 12:34 14,7 C 13,9 C 10,6 C 84 % 1000,5 hPa 0,0 l/m 0 min 0 min 97 W/m 3,2 km/h (1 Bft) 97,87 %
30.10.2023 12:36 14,7 C 13,9 C 10,6 C 84 % 1000,5 hPa 0,0 l/m 0 min 0 min 99 W/m 16,1 km/h (3 Bft) 97,87 %
30.10.2023 12:38 14,7 C 13,9 C 10,6 C 84 % 1000,4 hPa 0,0 l/m 0 min 0 min 112 W/m 6,4 km/h (2 Bft) 97,87 %
30.10.2023 12:40 14,7 C 14,4 C 10,6 C 84 % 1000,4 hPa 0,0 l/m 0 min 0 min 121 W/m 6,4 km/h (2 Bft) 97,87 %
30.10.2023 12:42 14,7 C 14,4 C 10,6 C 84 % 1000,4 hPa 0,0 l/m 0 min 0 min 125 W/m 12,9 km/h (3 Bft) 97,83 %
30.10.2023 12:44 14,6 C 14,4 C 10,6 C 84 % 1000,2 hPa 0,0 l/m 0 min 0 min 133 W/m 12,9 km/h (3 Bft) 97,87 %
30.10.2023 12:46 14,6 C 14,4 C 10,6 C 84 % 1000,2 hPa 0,0 l/m 0 min 0 min 129 W/m 6,4 km/h (2 Bft) 100,00 %
30.10.2023 12:48 14,6 C 14,4 C 10,6 C 84 % 1000,1 hPa 0,0 l/m 0 min 0 min 119 W/m 0,0 km/h (0 Bft) 100,00 %
30.10.2023 12:50 14,6 C 14,4 C 10,6 C 84 % 1000,1 hPa 0,0 l/m 0 min 0 min 99 W/m 0,0 km/h (0 Bft) 100,00 %
30.10.2023 12:52 14,7 C 14,4 C 10,6 C 84 % 1000,1 hPa 0,0 l/m 0 min 0 min 80 W/m 0,0 km/h (0 Bft) 100,00 %
30.10.2023 12:54 14,7 C 13,9 C 10,6 C 84 % 1000,1 hPa 0,0 l/m 0 min 0 min 77 W/m 0,0 km/h (0 Bft) 100,00 %
30.10.2023 12:56 14,7 C 13,9 C 10,6 C 84 % 1000,1 hPa 0,0 l/m 0 min 0 min 86 W/m 0,0 km/h (0 Bft) 100,00 %
30.10.2023 12:58 14,7 C 14,4 C 10,6 C 84 % 1000,1 hPa 0,0 l/m 0 min 0 min 91 W/m 0,0 km/h (0 Bft) 100,00 %
30.10.2023 13:00 14,7 C 14,4 C 10,6 C 84 % 1000,0 hPa 0,0 l/m 0 min 0 min 95 W/m 0,0 km/h (0 Bft) 100,00 %
30.10.2023 13:02 14,7 C 13,9 C 10,6 C 84 % 1000,0 hPa 0,0 l/m 0 min 0 min 91 W/m 0,0 km/h (0 Bft) 97,87 %
30.10.2023 13:04 14,7 C 14,4 C 10,6 C 84 % 999,9 hPa 0,0 l/m 0 min 0 min 91 W/m 0,0 km/h (0 Bft) 100,00 %
30.10.2023 13:06 14,7 C 14,4 C 10,6 C 84 % 999,8 hPa 0,0 l/m 0 min 0 min 102 W/m 0,0 km/h (0 Bft) 100,00 %
30.10.2023 13:08 14,7 C 14,4 C 10,6 C 84 % 999,8 hPa 0,0 l/m 0 min 0 min 109 W/m 0,0 km/h (0 Bft) 100,00 %
30.10.2023 13:10 14,7 C 14,4 C 10,6 C 85 % 999,8 hPa 0,0 l/m 0 min 0 min 113 W/m 0,0 km/h (0 Bft) 100,00 %
30.10.2023 13:12 14,7 C 14,4 C 10,6 C 85 % 999,8 hPa 0,0 l/m 0 min 0 min 112 W/m 0,0 km/h (0 Bft) 100,00 %
30.10.2023 13:14 14,7 C 14,4 C 10,6 C 85 % 999,7 hPa 0,0 l/m 0 min 0 min 101 W/m 0,0 km/h (0 Bft) 100,00 %
30.10.2023 13:16 14,7 C 14,4 C 10,6 C 85 % 999,7 hPa 0,0 l/m 0 min 0 min 88 W/m 0,0 km/h (0 Bft) 100,00 %
30.10.2023 13:18 14,7 C 13,9 C 10,6 C 85 % 999,7 hPa 0,0 l/m 0 min 0 min 88 W/m 0,0 km/h (0 Bft) 100,00 %
30.10.2023 13:20 14,7 C 13,9 C 10,6 C 85 % 999,6 hPa 0,0 l/m 0 min 0 min 92 W/m 0,0 km/h (0 Bft) 97,87 %
30.10.2023 13:22 14,7 C 13,9 C 10,6 C 85 % 999,5 hPa 0,0 l/m 0 min 0 min 88 W/m 0,0 km/h (0 Bft) 100,00 %
30.10.2023 13:24 14,7 C 13,9 C 10,0 C 85 % 999,5 hPa 0,0 l/m 0 min 0 min 79 W/m 0,0 km/h (0 Bft) 100,00 %
30.10.2023 13:26 14,7 C 13,9 C 10,0 C 85 % 999,4 hPa 0,0 l/m 0 min 0 min 67 W/m 0,0 km/h (0 Bft) 100,00 %
30.10.2023 13:28 14,7 C 13,9 C 10,0 C 85 % 999,4 hPa 0,0 l/m 0 min 0 min 58 W/m 0,0 km/h (0 Bft) 97,83 %
30.10.2023 13:30 14,7 C 13,9 C 10,0 C 85 % 999,3 hPa 0,0 l/m 0 min 0 min 59 W/m 0,0 km/h (0 Bft) 100,00 %
30.10.2023 13:32 14,6 C 13,9 C 10,0 C 85 % 999,4 hPa 0,0 l/m 0 min 0 min 71 W/m 0,0 km/h (0 Bft) 97,87 %
30.10.2023 13:34 14,6 C 13,9 C 10,0 C 85 % 999,3 hPa 0,0 l/m 0 min 0 min 70 W/m 0,0 km/h (0 Bft) 100,00 %
30.10.2023 13:36 14,6 C 13,9 C 10,0 C 85 % 999,3 hPa 0,0 l/m 0 min 0 min 66 W/m 0,0 km/h (0 Bft) 97,87 %
30.10.2023 13:38 14,6 C 13,9 C 10,0 C 85 % 999,3 hPa 0,0 l/m 0 min 0 min 61 W/m 0,0 km/h (0 Bft) 100,00 %
30.10.2023 13:40 14,6 C 13,9 C 10,0 C 85 % 999,2 hPa 0,0 l/m 0 min 0 min 60 W/m 0,0 km/h (0 Bft) 100,00 %
30.10.2023 13:42 14,6 C 13,9 C 10,0 C 85 % 999,1 hPa 0,0 l/m 0 min 0 min 66 W/m 0,0 km/h (0 Bft) 97,87 %
30.10.2023 13:44 14,6 C 13,9 C 10,0 C 85 % 999,1 hPa 0,0 l/m 0 min 0 min 75 W/m 0,0 km/h (0 Bft) 97,87 %
30.10.2023 13:46 14,6 C 13,9 C 10,0 C 85 % 999,1 hPa 0,0 l/m 0 min 0 min 75 W/m 0,0 km/h (0 Bft) 97,87 %
30.10.2023 13:48 14,6 C 13,9 C 10,0 C 85 % 999,1 hPa 0,0 l/m 0 min 0 min 68 W/m 0,0 km/h (0 Bft) 97,87 %
30.10.2023 13:50 14,6 C 13,9 C 10,0 C 86 % 999,0 hPa 0,0 l/m 0 min 0 min 67 W/m 0,0 km/h (0 Bft) 97,83 %
30.10.2023 13:52 14,6 C 13,9 C 10,0 C 86 % 999,0 hPa 0,0 l/m 0 min 0 min 65 W/m 0,0 km/h (0 Bft) 97,87 %
30.10.2023 13:54 14,6 C 13,9 C 10,0 C 86 % 999,0 hPa 0,0 l/m 0 min 0 min 58 W/m 0,0 km/h (0 Bft) 97,87 %
30.10.2023 13:56 14,6 C 13,9 C 10,0 C 86 % 999,0 hPa 0,0 l/m 0 min 0 min 54 W/m 0,0 km/h (0 Bft) 97,87 %
30.10.2023 13:58 14,6 C 13,9 C 10,0 C 86 % 999,0 hPa 0,0 l/m 0 min 0 min 58 W/m 0,0 km/h (0 Bft) 95,74 %
30.10.2023 14:00 14,6 C 13,9 C 10,0 C 86 % 998,8 hPa 0,0 l/m 0 min 0 min 56 W/m 0,0 km/h (0 Bft) 97,87 %
30.10.2023 14:02 14,6 C 13,9 C 10,0 C 86 % 998,8 hPa 0,0 l/m 0 min 0 min 46 W/m 0,0 km/h (0 Bft) 93,48 %
30.10.2023 14:04 14,6 C 13,9 C 10,0 C 86 % 998,9 hPa 0,0 l/m 0 min 0 min 41 W/m 0,0 km/h (0 Bft) 96,00 %
30.10.2023 14:06 14,6 C 13,9 C 10,0 C 86 % 998,7 hPa 0,0 l/m 0 min 0 min 44 W/m 0,0 km/h (0 Bft) 97,83 %
30.10.2023 14:08 14,6 C 13,9 C 10,0 C 86 % 998,7 hPa 0,0 l/m 0 min 0 min 50 W/m 0,0 km/h (0 Bft) 97,87 %
30.10.2023 14:10 14,6 C 13,9 C 10,0 C 86 % 998,6 hPa 0,0 l/m 0 min 0 min 53 W/m 0,0 km/h (0 Bft) 97,87 %
30.10.2023 14:12 14,6 C 13,9 C 10,0 C 86 % 998,5 hPa 0,0 l/m 0 min 0 min 53 W/m 0,0 km/h (0 Bft) 93,62 %
30.10.2023 14:14 14,6 C 13,9 C 10,0 C 86 % 998,4 hPa 0,0 l/m 0 min 0 min 55 W/m 0,0 km/h (0 Bft) 91,49 %
30.10.2023 14:16 14,6 C 13,9 C 10,0 C 86 % 998,4 hPa 0,0 l/m 0 min 0 min 58 W/m 0,0 km/h (0 Bft) 95,74 %
30.10.2023 14:18 14,6 C 13,9 C 10,0 C 86 % 998,4 hPa 0,0 l/m 0 min 0 min 67 W/m 0,0 km/h (0 Bft) 95,74 %
30.10.2023 14:20 14,6 C 13,9 C 10,0 C 87 % 998,2 hPa 0,0 l/m 0 min 0 min 79 W/m 0,0 km/h (0 Bft) 93,48 %
30.10.2023 14:22 14,6 C 13,9 C 10,0 C 87 % 998,2 hPa 0,0 l/m 0 min 0 min 91 W/m 0,0 km/h (0 Bft) 91,49 %
30.10.2023 14:24 14,6 C 13,9 C 10,0 C 87 % 998,1 hPa 0,0 l/m 0 min 0 min 100 W/m 0,0 km/h (0 Bft) 93,62 %
30.10.2023 14:26 14,6 C 14,4 C 10,0 C 87 % 998,0 hPa 0,0 l/m 0 min 0 min 109 W/m 0,0 km/h (0 Bft) 91,49 %
30.10.2023 14:28 14,6 C 14,4 C 10,0 C 88 % 998,0 hPa 0,0 l/m 0 min 0 min 108 W/m 0,0 km/h (0 Bft) 93,62 %
30.10.2023 14:30 14,6 C 14,4 C 10,0 C 88 % 998,0 hPa 0,0 l/m 0 min 0 min 86 W/m 0,0 km/h (0 Bft) 91,49 %
30.10.2023 14:32 14,6 C 14,4 C 10,0 C 88 % 998,0 hPa 0,0 l/m 0 min 0 min 69 W/m 0,0 km/h (0 Bft) 93,48 %
30.10.2023 14:34 14,6 C 14,4 C 10,0 C 88 % 997,9 hPa 0,0 l/m 0 min 0 min 69 W/m 0,0 km/h (0 Bft) 91,49 %
30.10.2023 14:36 14,6 C 14,4 C 10,0 C 88 % 997,9 hPa 0,0 l/m 0 min 0 min 72 W/m 0,0 km/h (0 Bft) 95,74 %
30.10.2023 14:38 14,6 C 14,4 C 10,6 C 88 % 997,9 hPa 0,0 l/m 0 min 0 min 74 W/m 0,0 km/h (0 Bft) 91,49 %
30.10.2023 14:40 14,6 C 14,4 C 10,6 C 88 % 997,9 hPa 0,0 l/m 0 min 0 min 75 W/m 0,0 km/h (0 Bft) 91,49 %
30.10.2023 14:42 14,6 C 14,4 C 10,6 C 88 % 997,8 hPa 0,0 l/m 0 min 0 min 70 W/m 0,0 km/h (0 Bft) 93,62 %
30.10.2023 14:44 14,6 C 14,4 C 10,6 C 88 % 997,8 hPa 0,0 l/m 0 min 0 min 73 W/m 0,0 km/h (0 Bft) 93,62 %
30.10.2023 14:46 14,6 C 14,4 C 10,6 C 88 % 997,8 hPa 0,0 l/m 0 min 0 min 75 W/m 0,0 km/h (0 Bft) 93,48 %
30.10.2023 14:48 14,6 C 14,4 C 10,6 C 88 % 997,8 hPa 0,0 l/m 0 min 0 min 70 W/m 0,0 km/h (0 Bft) 95,74 %
30.10.2023 14:50 14,6 C 14,4 C 10,6 C 88 % 997,8 hPa 0,0 l/m 0 min 0 min 65 W/m 0,0 km/h (0 Bft) 95,74 %
30.10.2023 14:52 14,6 C 14,4 C 10,6 C 88 % 997,8 hPa 0,0 l/m 0 min 0 min 66 W/m 0,0 km/h (0 Bft) 89,58 %
30.10.2023 14:54 14,6 C 14,4 C 10,6 C 88 % 997,8 hPa 0,0 l/m 0 min 0 min 65 W/m 0,0 km/h (0 Bft) 97,83 %
30.10.2023 14:56 14,6 C 14,4 C 10,6 C 88 % 997,8 hPa 0,0 l/m 0 min 0 min 62 W/m 0,0 km/h (0 Bft) 93,62 %
30.10.2023 14:58 14,6 C 14,4 C 10,6 C 88 % 997,8 hPa 0,0 l/m 0 min 0 min 64 W/m 0,0 km/h (0 Bft) 95,74 %
30.10.2023 15:00 14,6 C 14,4 C 10,6 C 88 % 997,8 hPa 0,0 l/m 0 min 0 min 57 W/m 0,0 km/h (0 Bft) 97,87 %
30.10.2023 15:02 14,6 C 14,4 C 10,6 C 88 % 997,8 hPa 0,0 l/m 0 min 0 min 48 W/m 0,0 km/h (0 Bft) 93,62 %
30.10.2023 15:04 14,7 C 13,9 C 10,6 C 88 % 997,8 hPa 0,0 l/m 0 min 0 min 42 W/m 0,0 km/h (0 Bft) 95,92 %
30.10.2023 15:06 14,7 C 13,9 C 10,0 C 88 % 997,8 hPa 0,0 l/m 0 min 0 min 37 W/m 0,0 km/h (0 Bft) 97,87 %
30.10.2023 15:08 14,7 C 13,9 C 10,0 C 88 % 997,8 hPa 0,0 l/m 0 min 0 min 37 W/m 0,0 km/h (0 Bft) 97,87 %
30.10.2023 15:10 14,7 C 13,9 C 10,0 C 88 % 997,8 hPa 0,0 l/m 0 min 0 min 37 W/m 0,0 km/h (0 Bft) 93,62 %
30.10.2023 15:12 14,7 C 13,9 C 10,0 C 88 % 997,7 hPa 0,0 l/m 0 min 0 min 41 W/m 0,0 km/h (0 Bft) 97,37 %
30.10.2023 15:14 14,7 C 13,9 C 10,0 C 88 % 997,7 hPa 0,0 l/m 0 min 0 min 38 W/m 0,0 km/h (0 Bft) 97,87 %
30.10.2023 15:16 14,7 C 13,9 C 10,0 C 88 % 997,7 hPa 0,0 l/m 0 min 0 min 34 W/m 0,0 km/h (0 Bft) 97,83 %
30.10.2023 15:18 14,7 C 13,9 C 10,0 C 88 % 997,8 hPa 0,0 l/m 0 min 0 min 34 W/m 0,0 km/h (0 Bft) 100,00 %
30.10.2023 15:20 14,7 C 13,9 C 10,0 C 88 % 997,7 hPa 0,0 l/m 0 min 0 min 35 W/m 0,0 km/h (0 Bft) 100,00 %
30.10.2023 15:22 14,7 C 13,9 C 10,0 C 88 % 997,6 hPa 0,0 l/m 0 min 0 min 35 W/m 0,0 km/h (0 Bft) 97,87 %
30.10.2023 15:24 14,6 C 13,9 C 10,0 C 88 % 997,6 hPa 0,0 l/m 0 min 0 min 32 W/m 0,0 km/h (0 Bft) 100,00 %
30.10.2023 15:26 14,6 C 13,9 C 10,0 C 88 % 997,6 hPa 0,0 l/m 0 min 0 min 26 W/m 0,0 km/h (0 Bft) 100,00 %
30.10.2023 15:28 14,6 C 13,9 C 10,0 C 88 % 997,6 hPa 0,0 l/m 0 min 0 min 28 W/m 0,0 km/h (0 Bft) 93,48 %
30.10.2023 15:30 14,6 C 13,9 C 10,0 C 88 % 997,5 hPa 0,0 l/m 0 min 2 min 37 W/m 0,0 km/h (0 Bft) 100,00 %
30.10.2023 15:32 14,6 C 13,9 C 10,0 C 88 % 997,5 hPa 0,0 l/m 0 min 2 min 39 W/m 0,0 km/h (0 Bft) 97,87 %
30.10.2023 15:34 14,6 C 13,9 C 9,4 C 88 % 997,4 hPa 0,0 l/m 0 min 2 min 35 W/m 0,0 km/h (0 Bft) 97,87 %
30.10.2023 15:36 14,6 C 13,9 C 9,4 C 88 % 997,4 hPa 0,0 l/m 0 min 2 min 33 W/m 0,0 km/h (0 Bft) 100,00 %
30.10.2023 15:38 14,6 C 13,9 C 9,4 C 89 % 997,5 hPa 0,0 l/m 0 min 2 min 35 W/m 0,0 km/h (0 Bft) 100,00 %
30.10.2023 15:40 14,6 C 13,9 C 9,4 C 89 % 997,4 hPa 0,0 l/m 0 min 2 min 32 W/m 0,0 km/h (0 Bft) 97,87 %
30.10.2023 15:42 14,6 C 13,9 C 9,4 C 89 % 997,4 hPa 0,0 l/m 0 min 0 min 27 W/m 0,0 km/h (0 Bft) 100,00 %
30.10.2023 15:44 14,6 C 13,9 C 9,4 C 89 % 997,4 hPa 0,0 l/m 0 min 0 min 26 W/m 0,0 km/h (0 Bft) 100,00 %
30.10.2023 15:46 14,6 C 13,3 C 9,4 C 89 % 997,4 hPa 0,0 l/m 0 min 0 min 23 W/m 0,0 km/h (0 Bft) 97,87 %
30.10.2023 15:48 14,6 C 13,3 C 9,4 C 89 % 997,4 hPa 0,0 l/m 0 min 0 min 19 W/m 0,0 km/h (0 Bft) 100,00 %
30.10.2023 15:50 14,5 C 13,3 C 9,4 C 89 % 997,4 hPa 0,0 l/m 0 min 0 min 18 W/m 0,0 km/h (0 Bft) 97,87 %
30.10.2023 15:52 14,4 C 13,3 C 9,4 C 89 % 997,4 hPa 0,0 l/m 0 min 0 min 17 W/m 0,0 km/h (0 Bft) 97,87 %
30.10.2023 15:54 14,4 C 13,3 C 9,4 C 89 % 997,3 hPa 0,0 l/m 0 min 0 min 16 W/m 0,0 km/h (0 Bft) 100,00 %
30.10.2023 15:56 14,4 C 13,3 C 9,4 C 89 % 997,3 hPa 0,0 l/m 0 min 0 min 17 W/m 0,0 km/h (0 Bft) 97,87 %
30.10.2023 15:58 14,4 C 13,3 C 9,4 C 89 % 997,3 hPa 0,0 l/m 0 min 0 min 18 W/m 0,0 km/h (0 Bft) 97,87 %
30.10.2023 16:00 14,3 C 13,3 C 9,4 C 89 % 997,3 hPa 0,0 l/m 0 min 2 min 18 W/m 0,0 km/h (0 Bft) 100,00 %
30.10.2023 16:02 14,3 C 13,3 C 9,4 C 89 % 997,3 hPa 0,0 l/m 0 min 0 min 16 W/m 0,0 km/h (0 Bft) 97,87 %
30.10.2023 16:04 14,3 C 13,3 C 9,4 C 89 % 997,3 hPa 0,0 l/m 0 min 0 min 14 W/m 3,2 km/h (1 Bft) 97,87 %
30.10.2023 16:06 14,3 C 13,3 C 9,4 C 89 % 997,2 hPa 0,0 l/m 0 min 0 min 12 W/m 3,2 km/h (1 Bft) 100,00 %
30.10.2023 16:08 14,3 C 13,3 C 9,4 C 89 % 997,1 hPa 0,0 l/m 0 min 0 min 12 W/m 6,4 km/h (2 Bft) 100,00 %
30.10.2023 16:10 14,3 C 13,3 C 9,4 C 90 % 997,1 hPa 0,0 l/m 0 min 0 min 13 W/m 6,4 km/h (2 Bft) 100,00 %
30.10.2023 16:12 14,3 C 13,3 C 9,4 C 90 % 997,0 hPa 0,0 l/m 0 min 2 min 18 W/m 12,9 km/h (3 Bft) 97,87 %
30.10.2023 16:14 14,3 C 13,3 C 9,4 C 90 % 997,0 hPa 0,0 l/m 0 min 2 min 18 W/m 3,2 km/h (1 Bft) 97,87 %
30.10.2023 16:16 14,3 C 13,3 C 9,4 C 90 % 997,0 hPa 0,0 l/m 0 min 2 min 16 W/m 6,4 km/h (2 Bft) 97,87 %
30.10.2023 16:18 14,3 C 13,3 C 9,4 C 90 % 996,9 hPa 0,0 l/m 0 min 2 min 15 W/m 3,2 km/h (1 Bft) 97,87 %
30.10.2023 16:20 14,3 C 13,3 C 9,4 C 90 % 996,9 hPa 0,0 l/m 0 min 2 min 16 W/m 3,2 km/h (1 Bft) 97,87 %
30.10.2023 16:22 14,3 C 13,3 C 9,4 C 90 % 996,9 hPa 0,0 l/m 0 min 0 min 14 W/m 3,2 km/h (1 Bft) 97,83 %
30.10.2023 16:24 14,3 C 13,3 C 9,4 C 90 % 996,9 hPa 0,2 l/m 0 min 0 min 15 W/m 3,2 km/h (1 Bft) 97,87 %
30.10.2023 16:26 14,3 C 13,3 C 9,4 C 90 % 996,9 hPa 0,0 l/m 0 min 2 min 14 W/m 0,0 km/h (0 Bft) 97,87 %
30.10.2023 16:28 14,2 C 13,3 C 9,4 C 90 % 996,9 hPa 0,0 l/m 0 min 0 min 14 W/m 0,0 km/h (0 Bft) 95,74 %
30.10.2023 16:30 14,2 C 13,3 C 9,4 C 90 % 996,9 hPa 0,0 l/m 0 min 0 min 13 W/m 0,0 km/h (0 Bft) 95,74 %
30.10.2023 16:32 14,2 C 13,3 C 9,4 C 90 % 996,9 hPa 0,0 l/m 0 min 2 min 11 W/m 0,0 km/h (0 Bft) 95,74 %
30.10.2023 16:34 14,2 C 13,3 C 9,4 C 90 % 996,9 hPa 0,0 l/m 0 min 2 min 11 W/m 0,0 km/h (0 Bft) 93,62 %
30.10.2023 16:36 14,2 C 13,3 C 9,4 C 90 % 996,9 hPa 0,0 l/m 0 min 0 min 10 W/m 0,0 km/h (0 Bft) 95,65 %
30.10.2023 16:38 14,1 C 12,8 C 9,4 C 91 % 996,9 hPa 0,0 l/m 0 min 2 min 9 W/m 0,0 km/h (0 Bft) 95,74 %
30.10.2023 16:40 14,1 C 12,8 C 9,4 C 91 % 996,9 hPa 0,0 l/m 0 min 0 min 7 W/m 0,0 km/h (0 Bft) 95,74 %
30.10.2023 16:42 14,1 C 12,8 C 9,4 C 91 % 996,9 hPa 0,0 l/m 0 min 0 min 5 W/m 0,0 km/h (0 Bft) 95,74 %
30.10.2023 16:44 14,1 C 12,8 C 9,4 C 91 % 997,0 hPa 0,0 l/m 0 min 2 min 2 W/m 6,4 km/h (2 Bft) 93,62 %
30.10.2023 16:46 14,0 C 12,8 C 8,9 C 91 % 997,0 hPa 0,0 l/m 0 min 2 min 0 W/m 6,4 km/h (2 Bft) 95,74 %
30.10.2023 16:48 14,0 C 12,8 C 8,9 C 91 % 997,0 hPa 0,0 l/m 0 min 2 min 0 W/m 9,7 km/h (2 Bft) 95,74 %
30.10.2023 16:50 13,9 C 12,8 C 8,9 C 91 % 996,9 hPa 0,0 l/m 0 min 2 min 0 W/m 6,4 km/h (2 Bft) 95,65 %
30.10.2023 16:52 13,9 C 12,8 C 8,9 C 91 % 996,9 hPa 0,0 l/m 0 min 2 min 0 W/m 12,9 km/h (3 Bft) 95,74 %
30.10.2023 16:54 13,9 C 12,8 C 8,9 C 91 % 996,9 hPa 0,0 l/m 0 min 2 min 0 W/m 3,2 km/h (1 Bft) 100,00 %
30.10.2023 16:56 13,9 C 12,8 C 8,9 C 91 % 996,9 hPa 0,0 l/m 0 min 2 min 0 W/m 12,9 km/h (3 Bft) 97,87 %
30.10.2023 16:58 13,8 C 12,8 C 8,9 C 91 % 996,9 hPa 0,0 l/m 0 min 2 min 0 W/m 12,9 km/h (3 Bft) 97,87 %
30.10.2023 17:00 13,8 C 12,8 C 8,9 C 91 % 996,9 hPa 0,0 l/m 0 min 2 min 0 W/m 6,4 km/h (2 Bft) 95,74 %
30.10.2023 17:02 13,8 C 12,8 C 8,9 C 91 % 996,9 hPa 0,0 l/m 0 min 2 min 0 W/m 12,9 km/h (3 Bft) 97,87 %
30.10.2023 17:04 13,8 C 12,8 C 8,3 C 92 % 996,9 hPa 0,2 l/m 0 min 2 min 0 W/m 6,4 km/h (2 Bft) 95,12 %
30.10.2023 17:06 13,7 C 12,8 C 8,3 C 92 % 996,9 hPa 0,0 l/m 0 min 2 min 0 W/m 0,0 km/h (0 Bft) 96,61 %
30.10.2023 17:08 13,7 C 12,8 C 8,3 C 92 % 996,9 hPa 0,0 l/m 0 min 2 min 0 W/m 6,4 km/h (2 Bft) 100,00 %
30.10.2023 17:10 13,7 C 12,2 C 8,3 C 92 % 996,8 hPa 0,0 l/m 0 min 2 min 0 W/m 12,9 km/h (3 Bft) 95,74 %
30.10.2023 17:12 13,7 C 12,2 C 8,3 C 92 % 996,8 hPa 0,0 l/m 0 min 2 min 0 W/m 12,9 km/h (3 Bft) 93,62 %
30.10.2023 17:14 13,6 C 12,2 C 8,3 C 92 % 996,7 hPa 0,2 l/m 0 min 2 min 0 W/m 12,9 km/h (3 Bft) 95,65 %
30.10.2023 17:16 13,6 C 12,2 C 8,3 C 92 % 996,7 hPa 0,0 l/m 0 min 2 min 0 W/m 9,7 km/h (2 Bft) 93,62 %
30.10.2023 17:18 13,6 C 12,2 C 8,3 C 93 % 996,7 hPa 0,2 l/m 0 min 2 min 0 W/m 6,4 km/h (2 Bft) 95,74 %
30.10.2023 17:20 13,6 C 12,2 C 8,3 C 93 % 996,8 hPa 0,0 l/m 0 min 2 min 0 W/m 6,4 km/h (2 Bft) 95,74 %
30.10.2023 17:22 13,5 C 12,2 C 8,3 C 93 % 996,8 hPa 0,0 l/m 0 min 2 min 0 W/m 12,9 km/h (3 Bft) 97,87 %
30.10.2023 17:24 13,5 C 12,2 C 8,3 C 93 % 996,7 hPa 0,0 l/m 0 min 2 min 0 W/m 6,4 km/h (2 Bft) 97,87 %
30.10.2023 17:26 13,5 C 12,2 C 8,3 C 93 % 996,7 hPa 0,0 l/m 0 min 2 min 0 W/m 6,4 km/h (2 Bft) 95,74 %
30.10.2023 17:28 13,4 C 12,2 C 8,3 C 93 % 996,7 hPa 0,0 l/m 0 min 2 min 0 W/m 6,4 km/h (2 Bft) 97,83 %
30.10.2023 17:30 13,4 C 12,2 C 8,3 C 93 % 996,7 hPa 0,0 l/m 0 min 2 min 0 W/m 3,2 km/h (1 Bft) 97,87 %
30.10.2023 17:32 13,4 C 12,2 C 8,3 C 94 % 996,6 hPa 0,2 l/m 0 min 2 min 0 W/m 12,9 km/h (3 Bft) 97,87 %
30.10.2023 17:34 13,4 C 12,2 C 8,3 C 94 % 996,6 hPa 0,0 l/m 0 min 2 min 0 W/m 6,4 km/h (2 Bft) 95,74 %
30.10.2023 17:36 13,3 C 12,2 C 8,3 C 94 % 996,6 hPa 0,0 l/m 0 min 2 min 0 W/m 9,7 km/h (2 Bft) 95,74 %
30.10.2023 17:38 13,3 C 12,2 C 8,3 C 94 % 996,6 hPa 0,0 l/m 0 min 2 min 0 W/m 3,2 km/h (1 Bft) 95,74 %
30.10.2023 17:40 13,3 C 12,2 C 8,3 C 94 % 996,7 hPa 0,2 l/m 0 min 2 min 0 W/m 12,9 km/h (3 Bft) 97,87 %
30.10.2023 17:42 13,3 C 12,2 C 8,3 C 94 % 996,6 hPa 0,0 l/m 0 min 2 min 0 W/m 3,2 km/h (1 Bft) 97,83 %
30.10.2023 17:44 13,3 C 12,2 C 8,3 C 94 % 996,7 hPa 0,0 l/m 0 min 2 min 0 W/m 6,4 km/h (2 Bft) 97,87 %
30.10.2023 17:46 13,2 C 12,2 C 8,3 C 94 % 996,8 hPa 0,2 l/m 0 min 2 min 0 W/m 6,4 km/h (2 Bft) 93,62 %
30.10.2023 17:48 13,2 C 12,2 C 8,3 C 94 % 996,7 hPa 0,0 l/m 0 min 2 min 0 W/m 6,4 km/h (2 Bft) 98,11 %
30.10.2023 17:50 13,2 C 11,7 C 8,3 C 95 % 996,6 hPa 0,2 l/m 0 min 2 min 0 W/m 3,2 km/h (1 Bft) 97,87 %
30.10.2023 17:52 13,2 C 11,7 C 8,3 C 95 % 996,6 hPa 0,0 l/m 0 min 2 min 0 W/m 6,4 km/h (2 Bft) 100,00 %
30.10.2023 17:54 13,2 C 11,7 C 8,3 C 95 % 996,6 hPa 0,0 l/m 0 min 2 min 0 W/m 3,2 km/h (1 Bft) 100,00 %
30.10.2023 17:56 13,2 C 11,7 C 8,3 C 95 % 996,6 hPa 0,0 l/m 0 min 2 min 0 W/m 3,2 km/h (1 Bft) 97,87 %
30.10.2023 17:58 13,1 C 11,7 C 8,3 C 95 % 996,6 hPa 0,0 l/m 0 min 2 min 0 W/m 9,7 km/h (2 Bft) 97,83 %
30.10.2023 18:00 13,1 C 11,7 C 8,3 C 95 % 996,7 hPa 0,2 l/m 0 min 2 min 0 W/m 6,4 km/h (2 Bft) 100,00 %
30.10.2023 18:02 13,1 C 11,7 C 8,3 C 95 % 996,7 hPa 0,0 l/m 0 min 2 min 0 W/m 6,4 km/h (2 Bft) 97,87 %
30.10.2023 18:04 13,1 C 11,7 C 8,3 C 95 % 996,7 hPa 0,0 l/m 0 min 2 min 0 W/m 3,2 km/h (1 Bft) 97,67 %
30.10.2023 18:08 13,1 C 11,7 C 8,3 C 95 % 996,7 hPa 0,0 l/m 0 min 4 min 0 W/m 3,2 km/h (1 Bft) 98,04 %
30.10.2023 18:10 13,1 C 11,7 C 8,3 C 95 % 996,7 hPa 0,2 l/m 0 min 2 min 0 W/m 3,2 km/h (1 Bft) 95,65 %
30.10.2023 18:12 13,0 C 11,7 C 8,3 C 95 % 996,7 hPa 0,0 l/m 0 min 2 min 0 W/m 3,2 km/h (1 Bft) 97,87 %
30.10.2023 18:14 13,0 C 11,7 C 8,3 C 95 % 996,7 hPa 0,0 l/m 0 min 2 min 0 W/m 0,0 km/h (0 Bft) 97,87 %
30.10.2023 18:16 13,0 C 11,7 C 8,3 C 95 % 996,8 hPa 0,0 l/m 0 min 2 min 0 W/m 0,0 km/h (0 Bft) 97,87 %
30.10.2023 18:18 13,0 C 11,7 C 8,3 C 95 % 996,8 hPa 0,0 l/m 0 min 2 min 0 W/m 6,4 km/h (2 Bft) 97,87 %
30.10.2023 18:20 13,0 C 11,7 C 8,3 C 96 % 996,7 hPa 0,0 l/m 0 min 2 min 0 W/m 3,2 km/h (1 Bft) 93,62 %
30.10.2023 18:22 12,9 C 11,7 C 8,3 C 96 % 996,7 hPa 0,0 l/m 0 min 2 min 0 W/m 0,0 km/h (0 Bft) 97,87 %
30.10.2023 18:24 12,9 C 11,7 C 8,3 C 96 % 996,8 hPa 0,2 l/m 0 min 2 min 0 W/m 0,0 km/h (0 Bft) 97,83 %
30.10.2023 18:26 12,9 C 11,7 C 8,3 C 96 % 996,9 hPa 0,0 l/m 0 min 2 min 0 W/m 0,0 km/h (0 Bft) 95,74 %
30.10.2023 18:28 12,9 C 11,7 C 8,3 C 96 % 996,9 hPa 0,0 l/m 0 min 2 min 0 W/m 3,2 km/h (1 Bft) 95,74 %
30.10.2023 18:30 12,9 C 11,7 C 8,3 C 96 % 996,8 hPa 0,2 l/m 0 min 2 min 0 W/m 3,2 km/h (1 Bft) 97,87 %
30.10.2023 18:32 12,9 C 11,7 C 8,3 C 96 % 996,8 hPa 0,0 l/m 0 min 2 min 0 W/m 3,2 km/h (1 Bft) 97,87 %
30.10.2023 18:34 12,9 C 11,7 C 8,3 C 96 % 996,8 hPa 0,0 l/m 0 min 2 min 0 W/m 3,2 km/h (1 Bft) 97,87 %
30.10.2023 18:36 12,9 C 11,7 C 8,3 C 96 % 996,7 hPa 0,0 l/m 0 min 2 min 0 W/m 6,4 km/h (2 Bft) 97,83 %
30.10.2023 18:38 12,9 C 11,7 C 8,3 C 96 % 996,7 hPa 0,0 l/m 0 min 2 min 0 W/m 6,4 km/h (2 Bft) 100,00 %
30.10.2023 18:40 12,9 C 11,7 C 8,3 C 96 % 996,7 hPa 0,0 l/m 0 min 2 min 0 W/m 0,0 km/h (0 Bft) 97,87 %
30.10.2023 18:42 12,9 C 11,7 C 8,3 C 96 % 996,7 hPa 0,2 l/m 0 min 2 min 0 W/m 0,0 km/h (0 Bft) 100,00 %
30.10.2023 18:44 12,8 C 11,7 C 8,3 C 96 % 996,6 hPa 0,0 l/m 0 min 2 min 0 W/m 0,0 km/h (0 Bft) 100,00 %
30.10.2023 18:46 12,8 C 11,7 C 8,3 C 96 % 996,6 hPa 0,2 l/m 0 min 2 min 0 W/m 0,0 km/h (0 Bft) 100,00 %
30.10.2023 18:48 12,8 C 11,7 C 8,3 C 96 % 996,6 hPa 0,0 l/m 0 min 2 min 0 W/m 0,0 km/h (0 Bft) 97,87 %
30.10.2023 18:50 12,8 C 11,7 C 8,3 C 96 % 996,7 hPa 0,0 l/m 0 min 2 min 0 W/m 0,0 km/h (0 Bft) 100,00 %
30.10.2023 18:52 12,8 C 11,7 C 8,3 C 96 % 996,6 hPa 0,0 l/m 0 min 2 min 0 W/m 0,0 km/h (0 Bft) 100,00 %
30.10.2023 18:54 12,8 C 11,7 C 8,3 C 96 % 996,6 hPa 0,0 l/m 0 min 2 min 0 W/m 0,0 km/h (0 Bft) 100,00 %
30.10.2023 18:56 12,8 C 11,7 C 8,3 C 96 % 996,6 hPa 0,0 l/m 0 min 2 min 0 W/m 0,0 km/h (0 Bft) 100,00 %
30.10.2023 18:58 12,8 C 11,7 C 8,3 C 96 % 996,5 hPa 0,0 l/m 0 min 2 min 0 W/m 0,0 km/h (0 Bft) 100,00 %
30.10.2023 19:00 12,8 C 11,7 C 8,3 C 97 % 996,5 hPa 0,2 l/m 0 min 2 min 0 W/m 0,0 km/h (0 Bft) 100,00 %
30.10.2023 19:02 12,8 C 11,7 C 8,3 C 97 % 996,6 hPa 0,0 l/m 0 min 2 min 0 W/m 0,0 km/h (0 Bft) 100,00 %
30.10.2023 19:04 12,8 C 11,7 C 8,3 C 97 % 996,6 hPa 0,0 l/m 0 min 2 min 0 W/m 0,0 km/h (0 Bft) 100,00 %
30.10.2023 19:06 12,8 C 11,7 C 8,3 C 97 % 996,6 hPa 0,2 l/m 0 min 2 min 0 W/m 0,0 km/h (0 Bft) 100,00 %
30.10.2023 19:08 12,8 C 11,7 C 8,3 C 97 % 996,6 hPa 0,0 l/m 0 min 2 min 0 W/m 0,0 km/h (0 Bft) 100,00 %
30.10.2023 19:10 12,8 C 11,7 C 8,3 C 97 % 996,6 hPa 0,0 l/m 0 min 2 min 0 W/m 0,0 km/h (0 Bft) 97,87 %
30.10.2023 19:12 12,8 C 11,7 C 8,3 C 97 % 996,6 hPa 0,0 l/m 0 min 2 min 0 W/m 0,0 km/h (0 Bft) 100,00 %
30.10.2023 19:14 12,8 C 11,7 C 8,3 C 97 % 996,5 hPa 0,0 l/m 0 min 2 min 0 W/m 0,0 km/h (0 Bft) 100,00 %
30.10.2023 19:16 12,8 C 11,7 C 8,3 C 97 % 996,4 hPa 0,0 l/m 0 min 2 min 0 W/m 0,0 km/h (0 Bft) 100,00 %
30.10.2023 19:18 12,8 C 11,7 C 8,3 C 97 % 996,4 hPa 0,2 l/m 0 min 2 min 0 W/m 0,0 km/h (0 Bft) 100,00 %
30.10.2023 19:20 12,7 C 11,7 C 8,3 C 97 % 996,3 hPa 0,0 l/m 0 min 2 min 0 W/m 0,0 km/h (0 Bft) 100,00 %
30.10.2023 19:22 12,7 C 11,7 C 8,3 C 97 % 996,3 hPa 0,0 l/m 0 min 2 min 0 W/m 0,0 km/h (0 Bft) 100,00 %
30.10.2023 19:24 12,7 C 11,7 C 8,3 C 97 % 996,3 hPa 0,2 l/m 0 min 2 min 0 W/m 0,0 km/h (0 Bft) 100,00 %
30.10.2023 19:26 12,7 C 11,7 C 8,3 C 97 % 996,2 hPa 0,0 l/m 0 min 2 min 0 W/m 0,0 km/h (0 Bft) 97,87 %
30.10.2023 19:28 12,7 C 11,7 C 8,3 C 97 % 996,2 hPa 0,0 l/m 0 min 2 min 0 W/m 0,0 km/h (0 Bft) 93,62 %
30.10.2023 19:30 12,7 C 11,7 C 8,3 C 97 % 996,2 hPa 0,0 l/m 0 min 2 min 0 W/m 0,0 km/h (0 Bft) 93,62 %
30.10.2023 19:32 12,7 C 11,7 C 8,3 C 97 % 996,2 hPa 0,0 l/m 0 min 2 min 0 W/m 0,0 km/h (0 Bft) 93,48 %
30.10.2023 19:34 12,7 C 11,7 C 8,3 C 97 % 996,2 hPa 0,0 l/m 0 min 2 min 0 W/m 0,0 km/h (0 Bft) 97,87 %
30.10.2023 19:36 12,7 C 11,7 C 8,3 C 97 % 996,1 hPa 0,0 l/m 0 min 2 min 0 W/m 0,0 km/h (0 Bft) 95,74 %
30.10.2023 19:38 12,7 C 11,7 C 8,3 C 97 % 996,1 hPa 0,0 l/m 0 min 2 min 0 W/m 0,0 km/h (0 Bft) 97,87 %
30.10.2023 19:40 12,7 C 11,7 C 8,3 C 97 % 996,1 hPa 0,0 l/m 0 min 2 min 0 W/m 0,0 km/h (0 Bft) 95,74 %
30.10.2023 19:42 12,7 C 11,7 C 8,3 C 97 % 996,1 hPa 0,2 l/m 0 min 2 min 0 W/m 0,0 km/h (0 Bft) 95,74 %
30.10.2023 19:44 12,7 C 11,7 C 8,3 C 97 % 996,1 hPa 0,0 l/m 0 min 2 min 0 W/m 0,0 km/h (0 Bft) 95,74 %
30.10.2023 19:46 12,7 C 11,7 C 8,3 C 97 % 996,1 hPa 0,0 l/m 0 min 0 min 0 W/m 0,0 km/h (0 Bft) 93,48 %
30.10.2023 19:48 12,7 C 11,7 C 8,3 C 97 % 996,1 hPa 0,0 l/m 0 min 0 min 0 W/m 0,0 km/h (0 Bft) 93,62 %
30.10.2023 19:50 12,7 C 11,7 C 8,3 C 97 % 996,1 hPa 0,0 l/m 0 min 0 min 0 W/m 0,0 km/h (0 Bft) 93,62 %
30.10.2023 19:52 12,6 C 11,7 C 8,3 C 97 % 996,1 hPa 0,0 l/m 0 min 0 min 0 W/m 0,0 km/h (0 Bft) 91,49 %
30.10.2023 19:54 12,6 C 11,7 C 8,3 C 97 % 996,2 hPa 0,0 l/m 0 min 0 min 0 W/m 0,0 km/h (0 Bft) 95,74 %
30.10.2023 19:56 12,6 C 11,7 C 8,3 C 97 % 996,2 hPa 0,0 l/m 0 min 0 min 0 W/m 0,0 km/h (0 Bft) 95,74 %
30.10.2023 19:58 12,6 C 11,7 C 8,3 C 97 % 996,2 hPa 0,0 l/m 0 min 0 min 0 W/m 0,0 km/h (0 Bft) 93,62 %
30.10.2023 20:00 12,6 C 11,7 C 8,3 C 97 % 996,1 hPa 0,0 l/m 0 min 0 min 0 W/m 0,0 km/h (0 Bft) 93,48 %
30.10.2023 20:02 12,6 C 11,7 C 8,3 C 97 % 996,1 hPa 0,0 l/m 0 min 0 min 0 W/m 0,0 km/h (0 Bft) 91,49 %
30.10.2023 20:04 12,6 C 11,7 C 8,3 C 97 % 996,1 hPa 0,0 l/m 0 min 0 min 0 W/m 0,0 km/h (0 Bft) 90,48 %
30.10.2023 20:06 12,6 C 11,7 C 8,3 C 97 % 996,1 hPa 0,0 l/m 0 min 0 min 0 W/m 0,0 km/h (0 Bft) 91,53 %
30.10.2023 20:08 12,6 C 11,7 C 8,3 C 97 % 996,1 hPa 0,0 l/m 0 min 0 min 0 W/m 0,0 km/h (0 Bft) 91,43 %
30.10.2023 20:10 12,6 C 11,7 C 8,3 C 97 % 996,0 hPa 0,0 l/m 0 min 0 min 0 W/m 0,0 km/h (0 Bft) 93,62 %
30.10.2023 20:12 12,6 C 11,7 C 8,3 C 97 % 996,0 hPa 0,0 l/m 0 min 0 min 0 W/m 0,0 km/h (0 Bft) 93,48 %
30.10.2023 20:14 12,6 C 11,7 C 8,3 C 97 % 996,0 hPa 0,0 l/m 0 min 0 min 0 W/m 0,0 km/h (0 Bft) 93,62 %
30.10.2023 20:16 12,6 C 11,7 C 8,3 C 97 % 996,0 hPa 0,0 l/m 0 min 0 min 0 W/m 0,0 km/h (0 Bft) 94,55 %
30.10.2023 20:18 12,6 C 11,7 C 8,3 C 97 % 996,1 hPa 0,0 l/m 0 min 0 min 0 W/m 0,0 km/h (0 Bft) 93,62 %
30.10.2023 20:20 12,6 C 11,7 C 8,3 C 98 % 996,0 hPa 0,0 l/m 0 min 0 min 0 W/m 0,0 km/h (0 Bft) 95,74 %
30.10.2023 20:22 12,6 C 11,7 C 8,3 C 98 % 996,0 hPa 0,0 l/m 0 min 0 min 0 W/m 0,0 km/h (0 Bft) 95,74 %
30.10.2023 20:24 12,6 C 11,7 C 8,3 C 98 % 995,9 hPa 0,0 l/m 0 min 0 min 0 W/m 0,0 km/h (0 Bft) 93,62 %
30.10.2023 20:26 12,6 C 11,7 C 8,3 C 98 % 995,9 hPa 0,0 l/m 0 min 0 min 0 W/m 0,0 km/h (0 Bft) 95,65 %
30.10.2023 20:28 12,6 C 11,7 C 8,3 C 98 % 995,9 hPa 0,0 l/m 0 min 0 min 0 W/m 0,0 km/h (0 Bft) 95,74 %
30.10.2023 20:30 12,6 C 11,7 C 8,3 C 98 % 995,9 hPa 0,0 l/m 0 min 0 min 0 W/m 0,0 km/h (0 Bft) 97,87 %
30.10.2023 20:32 12,6 C 11,7 C 8,3 C 98 % 995,9 hPa 0,0 l/m 0 min 0 min 0 W/m 0,0 km/h (0 Bft) 100,00 %
30.10.2023 20:34 12,6 C 11,7 C 8,3 C 98 % 995,9 hPa 0,0 l/m 0 min 0 min 0 W/m 0,0 km/h (0 Bft) 95,74 %
30.10.2023 20:36 12,6 C 11,7 C 8,3 C 98 % 995,9 hPa 0,0 l/m 0 min 0 min 0 W/m 0,0 km/h (0 Bft) 100,00 %
30.10.2023 20:38 12,6 C 11,7 C 8,9 C 98 % 995,8 hPa 0,0 l/m 0 min 0 min 0 W/m 0,0 km/h (0 Bft) 97,87 %
30.10.2023 20:40 12,6 C 11,7 C 8,9 C 98 % 995,9 hPa 0,0 l/m 0 min 0 min 0 W/m 0,0 km/h (0 Bft) 100,00 %
30.10.2023 20:42 12,6 C 11,7 C 8,9 C 98 % 995,9 hPa 0,0 l/m 0 min 0 min 0 W/m 0,0 km/h (0 Bft) 100,00 %
30.10.2023 20:44 12,6 C 11,7 C 8,9 C 98 % 995,9 hPa 0,0 l/m 0 min 0 min 0 W/m 0,0 km/h (0 Bft) 100,00 %
30.10.2023 20:46 12,6 C 11,7 C 8,9 C 98 % 995,8 hPa 0,0 l/m 0 min 0 min 0 W/m 0,0 km/h (0 Bft) 100,00 %
30.10.2023 20:48 12,6 C 11,7 C 8,9 C 98 % 995,9 hPa 0,0 l/m 0 min 0 min 0 W/m 0,0 km/h (0 Bft) 97,87 %
30.10.2023 20:50 12,6 C 11,7 C 8,9 C 98 % 995,9 hPa 0,0 l/m 0 min 0 min 0 W/m 0,0 km/h (0 Bft) 97,87 %
30.10.2023 20:52 12,6 C 11,7 C 8,9 C 98 % 995,8 hPa 0,0 l/m 0 min 0 min 0 W/m 0,0 km/h (0 Bft) 97,87 %
30.10.2023 20:54 12,7 C 11,7 C 8,9 C 98 % 995,8 hPa 0,0 l/m 0 min 0 min 0 W/m 0,0 km/h (0 Bft) 100,00 %
30.10.2023 20:56 12,7 C 11,7 C 8,9 C 98 % 995,8 hPa 0,0 l/m 0 min 0 min 0 W/m 0,0 km/h (0 Bft) 97,87 %
30.10.2023 20:58 12,7 C 11,7 C 8,9 C 98 % 995,8 hPa 0,0 l/m 0 min 0 min 0 W/m 0,0 km/h (0 Bft) 100,00 %
30.10.2023 21:00 12,7 C 11,7 C 8,9 C 98 % 995,8 hPa 0,0 l/m 0 min 0 min 0 W/m 0,0 km/h (0 Bft) 97,87 %
30.10.2023 21:02 12,6 C 11,7 C 8,9 C 98 % 995,8 hPa 0,0 l/m 0 min 0 min 0 W/m 0,0 km/h (0 Bft) 100,00 %
30.10.2023 21:04 12,6 C 11,7 C 8,9 C 98 % 995,8 hPa 0,0 l/m 0 min 0 min 0 W/m 0,0 km/h (0 Bft) 100,00 %
30.10.2023 21:06 12,6 C 11,7 C 8,9 C 98 % 995,7 hPa 0,0 l/m 0 min 0 min 0 W/m 0,0 km/h (0 Bft) 100,00 %
30.10.2023 21:08 12,6 C 11,7 C 8,9 C 98 % 995,8 hPa 0,0 l/m 0 min 0 min 0 W/m 0,0 km/h (0 Bft) 100,00 %
30.10.2023 21:10 12,6 C 11,7 C 8,9 C 98 % 995,8 hPa 0,0 l/m 0 min 0 min 0 W/m 0,0 km/h (0 Bft) 100,00 %
30.10.2023 21:12 12,6 C 11,7 C 8,9 C 98 % 995,8 hPa 0,0 l/m 0 min 0 min 0 W/m 0,0 km/h (0 Bft) 100,00 %
30.10.2023 21:14 12,6 C 11,7 C 8,9 C 98 % 995,8 hPa 0,0 l/m 0 min 0 min 0 W/m 0,0 km/h (0 Bft) 100,00 %
30.10.2023 21:16 12,6 C 11,7 C 8,9 C 98 % 995,8 hPa 0,0 l/m 0 min 0 min 0 W/m 0,0 km/h (0 Bft) 97,87 %
30.10.2023 21:18 12,6 C 11,7 C 8,9 C 98 % 996,0 hPa 0,0 l/m 0 min 0 min 0 W/m 0,0 km/h (0 Bft) 100,00 %
30.10.2023 21:20 12,6 C 11,7 C 8,9 C 98 % 996,0 hPa 0,0 l/m 0 min 0 min 0 W/m 0,0 km/h (0 Bft) 100,00 %
30.10.2023 21:22 12,7 C 11,7 C 8,9 C 98 % 996,0 hPa 0,0 l/m 0 min 0 min 0 W/m 9,7 km/h (2 Bft) 100,00 %
30.10.2023 21:24 12,7 C 11,7 C 8,9 C 98 % 996,1 hPa 0,0 l/m 0 min 0 min 0 W/m 3,2 km/h (1 Bft) 100,00 %
30.10.2023 21:26 12,7 C 11,7 C 8,9 C 98 % 996,1 hPa 0,0 l/m 0 min 0 min 0 W/m 0,0 km/h (0 Bft) 100,00 %
30.10.2023 21:28 12,7 C 11,7 C 8,9 C 98 % 996,2 hPa 0,0 l/m 0 min 0 min 0 W/m 0,0 km/h (0 Bft) 100,00 %
30.10.2023 21:30 12,7 C 11,7 C 8,9 C 98 % 996,1 hPa 0,0 l/m 0 min 0 min 0 W/m 6,4 km/h (2 Bft) 100,00 %
30.10.2023 21:32 12,7 C 11,7 C 8,9 C 98 % 995,9 hPa 0,2 l/m 0 min 2 min 0 W/m 0,0 km/h (0 Bft) 100,00 %
30.10.2023 21:34 12,7 C 11,7 C 8,9 C 98 % 995,9 hPa 0,0 l/m 0 min 2 min 0 W/m 3,2 km/h (1 Bft) 100,00 %
30.10.2023 21:36 12,7 C 11,7 C 8,9 C 98 % 995,9 hPa 0,0 l/m 0 min 0 min 0 W/m 3,2 km/h (1 Bft) 100,00 %
30.10.2023 21:38 12,7 C 11,7 C 8,9 C 98 % 995,9 hPa 0,0 l/m 0 min 0 min 0 W/m 3,2 km/h (1 Bft) 97,87 %
30.10.2023 21:40 12,7 C 11,7 C 8,9 C 98 % 995,8 hPa 0,0 l/m 0 min 0 min 0 W/m 3,2 km/h (1 Bft) 100,00 %
30.10.2023 21:42 12,7 C 11,7 C 8,9 C 98 % 995,8 hPa 0,0 l/m 0 min 0 min 0 W/m 3,2 km/h (1 Bft) 100,00 %
30.10.2023 21:44 12,7 C 11,7 C 8,9 C 98 % 995,7 hPa 0,0 l/m 0 min 0 min 0 W/m 0,0 km/h (0 Bft) 97,83 %
30.10.2023 21:46 12,7 C 11,7 C 8,9 C 98 % 995,7 hPa 0,0 l/m 0 min 0 min 0 W/m 0,0 km/h (0 Bft) 100,00 %
30.10.2023 21:48 12,7 C 11,7 C 8,9 C 98 % 995,7 hPa 0,0 l/m 0 min 0 min 0 W/m 0,0 km/h (0 Bft) 100,00 %
30.10.2023 21:50 12,7 C 11,7 C 8,9 C 98 % 995,6 hPa 0,0 l/m 0 min 0 min 0 W/m 0,0 km/h (0 Bft) 100,00 %
30.10.2023 21:52 12,7 C 11,7 C 8,9 C 98 % 995,6 hPa 0,0 l/m 0 min 2 min 0 W/m 0,0 km/h (0 Bft) 97,87 %
30.10.2023 21:54 12,7 C 11,7 C 8,9 C 98 % 995,6 hPa 0,0 l/m 0 min 0 min 0 W/m 0,0 km/h (0 Bft) 97,87 %
30.10.2023 21:56 12,7 C 11,7 C 8,9 C 98 % 995,6 hPa 0,0 l/m 0 min 0 min 0 W/m 0,0 km/h (0 Bft) 97,87 %
30.10.2023 21:58 12,7 C 11,7 C 8,9 C 98 % 995,5 hPa 0,0 l/m 0 min 0 min 0 W/m 0,0 km/h (0 Bft) 97,83 %
30.10.2023 22:00 12,7 C 11,7 C 8,9 C 99 % 995,5 hPa 0,0 l/m 0 min 0 min 0 W/m 0,0 km/h (0 Bft) 97,87 %
30.10.2023 22:02 12,7 C 11,7 C 8,9 C 99 % 995,4 hPa 0,0 l/m 0 min 0 min 0 W/m 0,0 km/h (0 Bft) 93,62 %
30.10.2023 22:04 12,7 C 11,7 C 8,9 C 99 % 995,4 hPa 0,0 l/m 0 min 0 min 0 W/m 0,0 km/h (0 Bft) 95,45 %
30.10.2023 22:06 12,7 C 11,7 C 8,9 C 99 % 995,4 hPa 0,0 l/m 0 min 0 min 0 W/m 0,0 km/h (0 Bft) 98,11 %
30.10.2023 22:08 12,7 C 11,7 C 8,9 C 99 % 995,3 hPa 0,0 l/m 0 min 2 min 0 W/m 0,0 km/h (0 Bft) 97,87 %
30.10.2023 22:10 12,6 C 11,7 C 8,9 C 99 % 995,3 hPa 0,0 l/m 0 min 2 min 0 W/m 0,0 km/h (0 Bft) 97,87 %
30.10.2023 22:12 12,6 C 11,7 C 8,9 C 99 % 995,3 hPa 0,0 l/m 0 min 0 min 0 W/m 0,0 km/h (0 Bft) 93,48 %
30.10.2023 22:14 12,6 C 11,7 C 8,9 C 99 % 995,3 hPa 0,0 l/m 0 min 0 min 0 W/m 0,0 km/h (0 Bft) 97,87 %
30.10.2023 22:16 12,6 C 11,7 C 8,9 C 99 % 995,3 hPa 0,0 l/m 0 min 0 min 0 W/m 0,0 km/h (0 Bft) 97,87 %
30.10.2023 22:18 12,6 C 11,7 C 8,9 C 99 % 995,3 hPa 0,0 l/m 0 min 0 min 0 W/m 0,0 km/h (0 Bft) 97,87 %
30.10.2023 22:20 12,6 C 11,7 C 8,9 C 99 % 995,3 hPa 0,0 l/m 0 min 0 min 0 W/m 0,0 km/h (0 Bft) 97,87 %
30.10.2023 22:22 12,6 C 11,7 C 8,9 C 99 % 995,3 hPa 0,0 l/m 0 min 0 min 0 W/m 0,0 km/h (0 Bft) 93,62 %
30.10.2023 22:24 12,6 C 11,7 C 8,9 C 99 % 995,3 hPa 0,0 l/m 0 min 0 min 0 W/m 0,0 km/h (0 Bft) 93,62 %
30.10.2023 22:26 12,6 C 11,7 C 8,9 C 99 % 995,2 hPa 0,0 l/m 0 min 2 min 0 W/m 0,0 km/h (0 Bft) 93,48 %
30.10.2023 22:28 12,7 C 11,7 C 8,9 C 99 % 995,2 hPa 0,0 l/m 0 min 2 min 0 W/m 0,0 km/h (0 Bft) 95,74 %
30.10.2023 22:30 12,6 C 11,7 C 8,9 C 99 % 995,2 hPa 0,0 l/m 0 min 2 min 0 W/m 0,0 km/h (0 Bft) 93,62 %
30.10.2023 22:32 12,7 C 11,7 C 8,9 C 99 % 995,2 hPa 0,0 l/m 0 min 0 min 0 W/m 3,2 km/h (1 Bft) 95,74 %
30.10.2023 22:34 12,7 C 11,7 C 8,9 C 99 % 995,2 hPa 0,2 l/m 0 min 0 min 0 W/m 0,0 km/h (0 Bft) 95,74 %
30.10.2023 22:36 12,7 C 11,7 C 8,9 C 99 % 995,2 hPa 0,0 l/m 0 min 0 min 0 W/m 3,2 km/h (1 Bft) 93,62 %
30.10.2023 22:38 12,7 C 11,7 C 8,9 C 99 % 995,1 hPa 0,0 l/m 0 min 2 min 0 W/m 3,2 km/h (1 Bft) 95,65 %
30.10.2023 22:40 12,7 C 11,7 C 8,9 C 99 % 995,1 hPa 0,0 l/m 0 min 0 min 0 W/m 3,2 km/h (1 Bft) 91,49 %
30.10.2023 22:42 12,6 C 11,7 C 8,9 C 99 % 995,1 hPa 0,0 l/m 0 min 0 min 0 W/m 6,4 km/h (2 Bft) 91,49 %
30.10.2023 22:44 12,7 C 11,7 C 8,9 C 99 % 995,1 hPa 0,0 l/m 0 min 2 min 0 W/m 6,4 km/h (2 Bft) 95,74 %
30.10.2023 22:46 12,7 C 11,7 C 8,9 C 99 % 995,1 hPa 0,0 l/m 0 min 2 min 0 W/m 3,2 km/h (1 Bft) 95,74 %
30.10.2023 22:48 12,7 C 11,7 C 8,9 C 99 % 995,1 hPa 0,0 l/m 0 min 2 min 0 W/m 6,4 km/h (2 Bft) 93,62 %
30.10.2023 22:50 12,6 C 11,7 C 8,9 C 99 % 995,1 hPa 0,0 l/m 0 min 0 min 0 W/m 0,0 km/h (0 Bft) 95,74 %
30.10.2023 22:52 12,7 C 11,7 C 8,9 C 99 % 995,1 hPa 0,0 l/m 0 min 0 min 0 W/m 3,2 km/h (1 Bft) 95,65 %
30.10.2023 22:54 12,7 C 11,7 C 8,9 C 99 % 995,1 hPa 0,0 l/m 0 min 0 min 0 W/m 3,2 km/h (1 Bft) 93,62 %
30.10.2023 22:56 12,6 C 11,7 C 8,9 C 99 % 995,1 hPa 0,0 l/m 0 min 0 min 0 W/m 3,2 km/h (1 Bft) 95,74 %
30.10.2023 22:58 12,7 C 11,7 C 8,9 C 99 % 995,1 hPa 0,0 l/m 0 min 0 min 0 W/m 3,2 km/h (1 Bft) 93,62 %
30.10.2023 23:00 12,7 C 11,7 C 8,9 C 99 % 995,0 hPa 0,0 l/m 0 min 2 min 0 W/m 3,2 km/h (1 Bft) 95,74 %
30.10.2023 23:02 12,7 C 11,7 C 8,9 C 99 % 995,1 hPa 0,0 l/m 0 min 2 min 0 W/m 3,2 km/h (1 Bft) 93,62 %
30.10.2023 23:04 12,6 C 11,7 C 8,9 C 99 % 995,0 hPa 0,2 l/m 0 min 2 min 0 W/m 3,2 km/h (1 Bft) 93,02 %
30.10.2023 23:06 12,6 C 11,7 C 8,9 C 99 % 994,9 hPa 0,0 l/m 0 min 2 min 0 W/m 3,2 km/h (1 Bft) 95,74 %
30.10.2023 23:08 12,6 C 11,7 C 8,9 C 99 % 995,0 hPa 0,0 l/m 0 min 2 min 0 W/m 12,9 km/h (3 Bft) 95,74 %
30.10.2023 23:10 12,6 C 11,7 C 8,9 C 99 % 994,9 hPa 0,0 l/m 0 min 2 min 0 W/m 6,4 km/h (2 Bft) 97,87 %
30.10.2023 23:12 12,6 C 11,7 C 8,9 C 99 % 994,9 hPa 0,0 l/m 0 min 0 min 0 W/m 6,4 km/h (2 Bft) 97,87 %
30.10.2023 23:14 12,6 C 11,7 C 8,9 C 99 % 995,0 hPa 0,0 l/m 0 min 0 min 0 W/m 6,4 km/h (2 Bft) 95,74 %
30.10.2023 23:16 12,6 C 11,7 C 8,9 C 99 % 994,9 hPa 0,0 l/m 0 min 0 min 0 W/m 6,4 km/h (2 Bft) 100,00 %
30.10.2023 23:18 12,6 C 11,7 C 8,9 C 99 % 994,9 hPa 0,0 l/m 0 min 0 min 0 W/m 3,2 km/h (1 Bft) 100,00 %
30.10.2023 23:20 12,6 C 11,7 C 8,9 C 99 % 994,9 hPa 0,0 l/m 0 min 0 min 0 W/m 3,2 km/h (1 Bft) 100,00 %
30.10.2023 23:22 12,6 C 11,7 C 8,9 C 99 % 994,9 hPa 0,0 l/m 0 min 0 min 0 W/m 9,7 km/h (2 Bft) 100,00 %
30.10.2023 23:24 12,6 C 11,7 C 8,9 C 99 % 994,8 hPa 0,0 l/m 0 min 0 min 0 W/m 6,4 km/h (2 Bft) 97,87 %
30.10.2023 23:25 12,6 C 11,7 C 8,9 C 99 % 994,9 hPa 0,0 l/m 0 min 0 min 0 W/m 9,7 km/h (2 Bft) 100,00 %
30.10.2023 23:28 12,6 C 11,7 C 8,9 C 99 % 994,9 hPa 0,0 l/m 0 min 0 min 0 W/m 0,0 km/h (0 Bft) 100,00 %
30.10.2023 23:30 12,6 C 11,7 C 8,9 C 99 % 994,9 hPa 0,0 l/m 0 min 0 min 0 W/m 3,2 km/h (1 Bft) 100,00 %
30.10.2023 23:32 12,6 C 12,2 C 8,9 C 99 % 994,9 hPa 0,0 l/m 0 min 0 min 0 W/m 6,4 km/h (2 Bft) 91,67 %
30.10.2023 23:34 12,6 C 12,2 C 8,9 C 99 % 994,9 hPa 0,0 l/m 0 min 0 min 0 W/m 6,4 km/h (2 Bft) 100,00 %
30.10.2023 23:36 12,6 C 12,2 C 8,9 C 99 % 994,8 hPa 0,0 l/m 0 min 0 min 0 W/m 6,4 km/h (2 Bft) 97,87 %
30.10.2023 23:38 12,6 C 12,2 C 8,9 C 99 % 994,9 hPa 0,0 l/m 0 min 0 min 0 W/m 6,4 km/h (2 Bft) 100,00 %
30.10.2023 23:40 12,6 C 12,2 C 8,9 C 99 % 994,8 hPa 0,0 l/m 0 min 0 min 0 W/m 12,9 km/h (3 Bft) 97,83 %
30.10.2023 23:42 12,6 C 12,2 C 8,9 C 99 % 994,8 hPa 0,0 l/m 0 min 0 min 0 W/m 12,9 km/h (3 Bft) 97,87 %
30.10.2023 23:44 12,6 C 12,2 C 8,9 C 99 % 994,8 hPa 0,0 l/m 0 min 0 min 0 W/m 12,9 km/h (3 Bft) 100,00 %
30.10.2023 23:46 12,6 C 12,2 C 8,9 C 99 % 994,8 hPa 0,0 l/m 0 min 0 min 0 W/m 16,1 km/h (3 Bft) 97,87 %
30.10.2023 23:48 12,6 C 12,2 C 8,9 C 99 % 994,8 hPa 0,0 l/m 0 min 0 min 0 W/m 22,5 km/h (4 Bft) 97,87 %
30.10.2023 23:50 12,6 C 12,2 C 8,9 C 99 % 994,9 hPa 0,0 l/m 0 min 0 min 0 W/m 29,0 km/h (5 Bft) 97,87 %
30.10.2023 23:52 12,6 C 12,2 C 8,9 C 99 % 994,9 hPa 0,0 l/m 0 min 0 min 0 W/m 38,6 km/h (5 Bft) 97,87 %
30.10.2023 23:54 12,6 C 12,2 C 8,9 C 99 % 994,9 hPa 0,0 l/m 0 min 0 min 0 W/m 38,6 km/h (5 Bft) 97,83 %
30.10.2023 23:56 12,6 C 12,2 C 8,9 C 99 % 995,0 hPa 0,0 l/m 0 min 0 min 0 W/m 22,5 km/h (4 Bft) 97,87 %
30.10.2023 23:58 12,6 C 12,2 C 8,9 C 99 % 995,0 hPa 0,0 l/m 0 min 0 min 0 W/m 19,3 km/h (3 Bft) 97,87 %
_ Min-Zeit 07:52 07:30 05:30 12:20 23:24 - - - - 00:48 05:02
Minimum _ 10,5 C 9,4 C 6,7 C 83 % 994,8 hPa - - - - 0,0 km/h (0 Bft) 52,38 %
_ Max-Zeit 12:04 11:56 11:58 22:00 09:56 16:24 11:48 18:08 11:56 23:52 00:00
Maximum _ 14,7 C 15,6 C 11,1 C 99 % 1001,8 hPa 0,2 l/m 2 min 4 min 263 W/m 38,6 km/h
S-SO (5 Bft)
100,00 %
Durchschnitt _ 12,7 C 11,9 C 8,5 C 91 % 999,1 hPa #4,4 l/m #16 min. #4:10 h 82 W/m 5,6 km/h (1 Bft) 97,10 %
© 2023 W. Hausmann